NORTHRYDE Weather Reports


time (UTC)temp
F
wind
direction
speed
knots
gust
knots
rain 1hr
in
rain 24hr
in
rain mn
in
humidity
%
barometer
mb
20260507101808 52 279 7.0 10.4 0.00 0.00 0.00 49 1019.9
20260507101712 53 277 7.0 10.4 0.00 0.00 0.00 49 1019.8
20260507101603 52 275 6.1 10.4 0.00 0.00 0.00 49 1019.8
20260507101527 53 295 7.0 9.6 0.00 0.00 0.00 49 1019.7
20260507101507 53 281 6.1 9.6 0.00 0.00 0.00 49 1019.7
20260507101442 53 259 5.2 9.6 0.00 0.00 0.00 49 1019.7
20260507101156 53 254 4.3 7.8 0.00 0.00 0.00 49 1019.8
20260507101058 53 269 4.3 9.6 0.00 0.00 0.00 49 1019.8
20260507100953 53 272 5.2 9.6 0.00 0.00 0.00 49 1019.8
20260507100853 53 229 5.2 9.6 0.00 0.00 0.00 49 1019.7
20260507100748 53 265 4.3 9.6 0.00 0.00 0.00 48 1019.8
20260507100643 53 261 4.3 9.6 0.00 0.00 0.00 48 1019.7
20260507100541 53 245 4.3 9.6 0.00 0.00 0.00 48 1019.6
20260507100519 53 236 4.3 9.6 0.00 0.00 0.00 48 1019.6
20260507100456 53 251 5.2 9.6 0.00 0.00 0.00 48 1019.6
20260507100431 53 244 6.1 9.6 0.00 0.00 0.00 48 1019.6
20260507100138 53 310 5.2 9.6 0.00 0.00 0.00 48 1019.6
20260507100039 53 251 3.5 8.7 0.00 0.00 0.00 48 1019.7
20260507095938 53 266 4.3 8.7 0.00 0.00 0.00 48 1019.6
20260507095838 53 257 5.2 8.7 0.00 0.00 0.00 48 1019.7
20260507095737 53 253 6.1 8.7 0.00 0.00 0.00 48 1019.7
20260507095640 53 252 5.2 8.7 0.00 0.00 0.00 48 1019.7
20260507095537 53 281 4.3 8.7 0.00 0.00 0.00 48 1019.7
20260507095439 53 252 3.5 8.7 0.00 0.00 0.00 48 1019.6
20260507095337 53 264 5.2 8.7 0.00 0.00 0.00 48 1019.6
20260507095239 53 243 6.1 8.7 0.00 0.00 0.00 48 1019.7
20260507095140 53 266 6.1 8.7 0.00 0.00 0.00 48 1019.6
20260507095040 53 274 5.2 9.6 0.00 0.00 0.00 48 1019.5
20260507094936 53 262 5.2 10.4 0.00 0.00 0.00 48 1019.6
20260507094838 53 271 6.1 10.4 0.00 0.00 0.00 48 1019.7
20260507094738 53 233 5.2 13.0 0.00 0.00 0.00 48 1019.7
20260507094639 53 227 5.2 13.0 0.00 0.00 0.00 48 1019.7
20260507094539 53 296 5.2 13.0 0.00 0.00 0.00 48 1019.6
20260507094429 53 259 6.1 13.0 0.00 0.00 0.00 48 1019.6
20260507094334 53 269 6.1 13.0 0.00 0.00 0.00 48 1019.5
20260507094228 53 263 5.2 13.0 0.00 0.00 0.00 48 1019.5
20260507094128 53 271 6.1 13.0 0.00 0.00 0.00 48 1019.5
20260507094023 53 289 7.0 13.0 0.00 0.00 0.00 48 1019.4
20260507093922 53 249 7.0 13.0 0.00 0.00 0.00 48 1019.4
20260507093823 53 276 7.0 13.0 0.00 0.00 0.00 48 1019.3
20260507093718 53 294 6.1 12.2 0.00 0.00 0.00 47 1019.2
20260507093612 53 281 7.0 12.2 0.00 0.00 0.00 48 1019.3
20260507093510 53 263 7.0 12.2 0.00 0.00 0.00 48 1019.3
20260507093408 53 267 7.8 12.2 0.00 0.00 0.00 47 1019.2
20260507093312 53 267 8.7 12.2 0.00 0.00 0.00 48 1019.2
20260507093111 53 269 5.2 12.2 0.00 0.00 0.00 48 1019.1
20260507093041 53 229 5.2 12.2 0.00 0.00 0.00 48 1019.2
20260507093019 53 264 7.0 12.2 0.00 0.00 0.00 48 1019.2
20260507092957 53 231 7.8 12.2 0.00 0.00 0.00 48 1019.1
20260507092928 53 251 7.0 12.2 0.00 0.00 0.00 48 1019.1
20260507092609 53 279 6.1 11.3 0.00 0.00 0.00 48 1019.1
20260507092510 53 267 5.2 11.3 0.00 0.00 0.00 48 1019.0
20260507092410 53 277 4.3 9.6 0.00 0.00 0.00 48 1019.1
20260507092307 53 252 4.3 9.6 0.00 0.00 0.00 48 1019.1
20260507092204 53 261 6.1 9.6 0.00 0.00 0.00 48 1019.1
20260507092102 53 257 7.0 9.6 0.00 0.00 0.00 48 1019.0
20260507091959 53 225 6.1 9.6 0.00 0.00 0.00 48 1019.0
20260507091926 53 270 5.2 9.6 0.00 0.00 0.00 48 1019.0
20260507091856 53 260 5.2 9.6 0.00 0.00 0.00 48 1019.0
20260507091828 53 276 6.1 9.6 0.00 0.00 0.00 48 1018.9
20260507091757 53 240 5.2 9.6 0.00 0.00 0.00 48 1019.0
20260507091523 53 292 4.3 9.6 0.00 0.00 0.00 48 1019.0
20260507091503 53 246 5.2 10.4 0.00 0.00 0.00 48 1019.0
20260507091438 53 261 7.0 10.4 0.00 0.00 0.00 48 1018.9
20260507091149 53 250 5.2 10.4 0.00 0.00 0.00 48 1018.9
20260507091046 53 275 5.2 10.4 0.00 0.00 0.00 48 1019.0
20260507090944 53 261 5.2 10.4 0.00 0.00 0.00 48 1019.0
20260507090847 53 269 4.3 10.4 0.00 0.00 0.00 48 1019.0
20260507090741 53 253 5.2 10.4 0.00 0.00 0.00 47 1019.0
20260507090640 53 252 7.0 10.4 0.00 0.00 0.00 47 1018.9
20260507090538 53 281 6.1 10.4 0.00 0.00 0.00 47 1019.0
20260507090437 53 232 5.2 10.4 0.00 0.00 0.00 47 1019.1
20260507090337 53 250 6.1 10.4 0.00 0.00 0.00 47 1019.0
20260507090240 53 248 7.0 10.4 0.00 0.00 0.00 47 1019.0
20260507090138 53 279 7.0 10.4 0.00 0.00 0.00 47 1018.9
20260507090037 53 261 5.2 10.4 0.00 0.00 0.00 47 1019.0
20260507085938 53 282 3.5 10.4 0.00 0.00 0.00 47 1018.9
20260507085838 54 243 4.3 10.4 0.00 0.00 0.00 47 1018.8
20260507085736 54 267 5.2 10.4 0.00 0.00 0.00 47 1018.9
20260507085639 54 267 5.2 10.4 0.00 0.00 0.00 47 1018.8
20260507085537 54 281 4.3 10.4 0.00 0.00 0.00 47 1018.8
20260507085437 54 274 5.2 10.4 0.00 0.00 0.00 47 1018.9
20260507085337 54 275 7.0 10.4 0.00 0.00 0.00 47 1018.8
20260507085237 54 265 5.2 9.6 0.00 0.00 0.00 47 1018.8
20260507085138 54 255 5.2 9.6 0.00 0.00 0.00 47 1018.7
20260507085044 54 272 5.2 9.6 0.00 0.00 0.00 47 1018.8
20260507085020 54 286 6.1 9.6 0.00 0.00 0.00 47 1018.8
20260507084956 54 244 6.1 9.6 0.00 0.00 0.00 47 1018.7
20260507084931 54 262 5.2 9.6 0.00 0.00 0.00 47 1018.9
20260507084629 54 258 4.3 9.6 0.00 0.00 0.00 47 1018.7
20260507084527 54 276 5.2 9.6 0.00 0.00 0.00 47 1018.8
20260507084426 54 261 5.2 9.6 0.00 0.00 0.00 47 1018.8
20260507084323 54 260 5.2 9.6 0.00 0.00 0.00 47 1018.8
20260507084223 54 276 5.2 9.6 0.00 0.00 0.00 47 1018.7
20260507084122 54 280 4.3 9.6 0.00 0.00 0.00 47 1018.7
20260507084019 54 290 5.2 9.6 0.00 0.00 0.00 47 1018.8
20260507083956 54 268 5.2 9.6 0.00 0.00 0.00 46 1018.7
20260507083930 54 276 4.3 9.6 0.00 0.00 0.00 46 1018.6
20260507083906 54 242 5.2 10.4 0.00 0.00 0.00 46 1018.7
20260507083835 54 260 5.2 11.3 0.00 0.00 0.00 47 1018.7
20260507083531 54 252 4.3 11.3 0.00 0.00 0.00 46 1018.6
20260507083508 54 300 4.3 11.3 0.00 0.00 0.00 47 1018.6
20260507083447 54 288 4.3 11.3 0.00 0.00 0.00 46 1018.6
20260507083424 54 281 4.3 11.3 0.00 0.00 0.00 46 1018.5
20260507083110 54 255 4.3 11.3 0.00 0.00 0.00 46 1018.6
20260507083009 54 278 5.2 11.3 0.00 0.00 0.00 46 1018.5
20260507082908 54 278 7.8 11.3 0.00 0.00 0.00 46 1018.6
20260507082812 54 275 6.1 11.3 0.00 0.00 0.00 46 1018.5
20260507082621 54 270 4.3 8.7 0.00 0.00 0.00 46 1018.5
20260507082512 54 277 5.2 8.7 0.00 0.00 0.00 46 1018.5
20260507082410 55 264 3.5 8.7 0.00 0.00 0.00 46 1018.4
20260507082312 55 257 3.5 7.0 0.00 0.00 0.00 46 1018.6
20260507082109 55 281 1.7 9.6 0.00 0.00 0.00 46 1018.6
20260507082009 55 268 2.6 9.6 0.00 0.00 0.00 45 1018.5
20260507081912 55 269 3.5 10.4 0.00 0.00 0.00 45 1018.5
20260507081811 55 273 4.3 13.0 0.00 0.00 0.00 45 1018.5
20260507081611 55 275 3.5 15.6 0.00 0.00 0.00 45 1018.4
20260507081509 55 254 3.5 15.6 0.00 0.00 0.00 45 1018.3
20260507081411 55 270 6.1 15.6 0.00 0.00 0.00 45 1018.4
20260507081310 55 271 7.8 15.6 0.00 0.00 0.00 45 1018.2
20260507081110 55 293 8.7 15.6 0.00 0.00 0.00 45 1018.1
20260507081009 55 265 9.6 15.6 0.00 0.00 0.00 44 1018.2
20260507080914 55 273 9.6 15.6 0.00 0.00 0.00 44 1018.1
20260507080811 55 265 8.7 15.6 0.00 0.00 0.00 44 1018.1
20260507080634 55 278 5.2 13.9 0.00 0.00 0.00 45 1018.1
20260507080509 55 265 7.0 13.9 0.00 0.00 0.00 44 1018.0
20260507080409 55 266 8.7 13.9 0.00 0.00 0.00 44 1018.0
20260507080313 55 255 8.7 13.9 0.00 0.00 0.00 44 1018.0
20260507080111 55 318 6.1 11.3 0.00 0.00 0.00 44 1017.9
20260507080009 55 288 7.0 10.4 0.00 0.00 0.00 44 1018.0
20260507075909 55 263 7.0 10.4 0.00 0.00 0.00 44 1017.9
20260507075810 55 286 7.0 10.4 0.00 0.00 0.00 44 1017.9
20260507075615 55 249 7.0 10.4 0.00 0.00 0.00 44 1017.9
20260507075511 55 265 7.0 10.4 0.00 0.00 0.00 44 1017.8
20260507075411 55 265 7.8 10.4 0.00 0.00 0.00 44 1017.7
20260507075311 55 284 7.0 10.4 0.00 0.00 0.00 43 1017.7
20260507075110 55 243 7.8 11.3 0.00 0.00 0.00 43 1017.7
20260507075011 55 284 7.0 11.3 0.00 0.00 0.00 43 1017.7
20260507074912 55 277 7.0 11.3 0.00 0.00 0.00 43 1017.7
20260507074812 55 277 7.8 11.3 0.00 0.00 0.00 43 1017.7
20260507074612 56 261 7.0 11.3 0.00 0.00 0.00 43 1017.6
20260507074509 56 228 7.0 11.3 0.00 0.00 0.00 43 1017.6
20260507074403 56 254 8.7 11.3 0.00 0.00 0.00 43 1017.6
20260507074300 56 251 9.6 11.3 0.00 0.00 0.00 43 1017.6
20260507074155 56 273 7.0 11.3 0.00 0.00 0.00 43 1017.6
20260507074054 56 261 5.2 11.3 0.00 0.00 0.00 43 1017.5
20260507073950 56 254 5.2 11.3 0.00 0.00 0.00 43 1017.5
20260507073849 56 245 6.1 15.6 0.00 0.00 0.00 42 1017.5
20260507073744 56 245 6.1 16.5 0.00 0.00 0.00 42 1017.5
20260507073645 56 256 6.1 16.5 0.00 0.00 0.00 42 1017.4
20260507073621 56 257 7.0 16.5 0.00 0.00 0.00 42 1017.5
20260507073524 56 233 7.8 16.5 0.00 0.00 0.00 42 1017.4
20260507073501 56 260 9.6 16.5 0.00 0.00 0.00 42 1017.5
20260507073439 56 271 7.8 16.5 0.00 0.00 0.00 42 1017.5
20260507073136 56 254 7.0 16.5 0.00 0.00 0.00 42 1017.5
20260507073037 56 252 9.6 16.5 0.00 0.00 0.00 42 1017.5
20260507072938 56 276 10.4 16.5 0.00 0.00 0.00 42 1017.4
20260507072838 56 254 10.4 15.6 0.00 0.00 0.00 42 1017.5
20260507072739 56 259 9.6 15.6 0.00 0.00 0.00 42 1017.5
20260507072639 56 261 7.0 15.6 0.00 0.00 0.00 42 1017.5
20260507072539 56 263 7.0 13.9 0.00 0.00 0.00 42 1017.4
20260507072439 56 256 7.0 13.9 0.00 0.00 0.00 42 1017.4
20260507072336 56 270 6.1 13.9 0.00 0.00 0.00 42 1017.3
20260507072238 56 265 6.1 14.8 0.00 0.00 0.00 42 1017.2
20260507072139 56 226 7.0 17.4 0.00 0.00 0.00 42 1017.2
20260507072037 56 250 7.8 18.2 0.00 0.00 0.00 42 1017.4
20260507071938 56 221 7.8 18.2 0.00 0.00 0.00 42 1017.4
20260507071838 56 272 10.4 18.2 0.00 0.00 0.00 42 1017.2
20260507071738 56 314 11.3 18.2 0.00 0.00 0.00 41 1017.2
20260507071637 56 247 9.6 18.2 0.00 0.00 0.00 42 1017.2
20260507071538 56 238 7.8 18.2 0.00 0.00 0.00 42 1017.1
20260507071434 56 242 7.8 18.2 0.00 0.00 0.00 42 1017.2
20260507071332 56 297 11.3 18.2 0.00 0.00 0.00 41 1017.2
20260507071231 56 256 11.3 18.2 0.00 0.00 0.00 41 1017.1
20260507071135 56 288 7.8 18.2 0.00 0.00 0.00 42 1017.1
20260507071027 57 271 7.0 18.2 0.00 0.00 0.00 42 1017.2
20260507070926 57 246 7.8 18.2 0.00 0.00 0.00 42 1017.2
20260507070828 57 254 7.0 18.2 0.00 0.00 0.00 41 1017.2
20260507070726 57 265 7.0 18.2 0.00 0.00 0.00 41 1017.1
20260507070623 57 309 9.6 18.2 0.00 0.00 0.00 41 1017.1
20260507070544 57 251 11.3 18.2 0.00 0.00 0.00 41 1017.1
20260507070416 57 292 12.2 18.2 0.00 0.00 0.00 41 1017.2
20260507070314 57 275 12.2 18.2 0.00 0.00 0.00 41 1017.2
20260507070109 57 292 6.1 22.6 0.00 0.00 0.00 41 1017.1
20260507070013 57 279 7.0 22.6 0.00 0.00 0.00 41 1017.0
20260507065910 57 248 7.8 22.6 0.00 0.00 0.00 41 1017.2
20260507065810 57 270 8.7 22.6 0.00 0.00 0.00 40 1016.9
20260507065623 57 260 10.4 22.6 0.00 0.00 0.00 40 1017.1
20260507065509 58 267 11.3 22.6 0.00 0.00 0.00 40 1017.1
20260507065416 58 279 9.6 22.6 0.00 0.00 0.00 40 1017.0
20260507065311 58 282 8.7 22.6 0.00 0.00 0.00 39 1017.1
20260507065108 58 262 9.6 16.5 0.00 0.00 0.00 39 1017.0
20260507065011 58 244 10.4 16.5 0.00 0.00 0.00 39 1017.0
20260507064909 58 269 9.6 16.5 0.00 0.00 0.00 39 1016.9
20260507064810 58 254 8.7 16.5 0.00 0.00 0.00 39 1016.8
20260507064612 58 280 7.8 16.5 0.00 0.00 0.00 39 1016.8
20260507064502 58 246 7.8 16.5 0.00 0.00 0.00 39 1016.7
20260507064359 58 252 9.6 16.5 0.00 0.00 0.00 39 1016.6
20260507064258 58 250 11.3 16.5 0.00 0.00 0.00 38 1016.6
20260507064153 58 243 11.3 16.5 0.00 0.00 0.00 39 1016.7
20260507064055 58 240 9.6 16.5 0.00 0.00 0.00 39 1016.8
20260507063951 58 230 7.0 16.5 0.00 0.00 0.00 39 1016.8
20260507063848 59 264 7.0 13.9 0.00 0.00 0.00 39 1016.8
20260507063748 59 280 7.8 13.9 0.00 0.00 0.00 39 1016.8
20260507063647 59 267 8.7 13.9 0.00 0.00 0.00 38 1016.7
20260507063540 59 228 8.7 13.9 0.00 0.00 0.00 38 1016.8
20260507063444 59 232 7.8 13.9 0.00 0.00 0.00 38 1016.9
20260507063337 59 260 8.7 13.9 0.00 0.00 0.00 38 1016.8
20260507063245 59 256 7.8 13.9 0.00 0.00 0.00 38 1016.9
20260507063140 59 232 6.1 13.9 0.00 0.00 0.00 38 1016.9
20260507063040 59 246 7.8 13.9 0.00 0.00 0.00 38 1016.8
20260507062945 59 269 8.7 13.9 0.00 0.00 0.00 38 1016.8
20260507062836 59 225 9.6 13.9 0.00 0.00 0.00 38 1016.8
20260507062738 59 263 7.8 13.0 0.00 0.00 0.00 39 1016.8
20260507062637 59 239 7.0 13.0 0.00 0.00 0.00 39 1016.7
20260507062537 59 276 7.8 16.5 0.00 0.00 0.00 39 1016.8
20260507062442 59 270 7.8 19.1 0.00 0.00 0.00 38 1016.9
20260507062339 59 228 6.1 19.1 0.00 0.00 0.00 39 1016.9
20260507062237 59 225 6.1 19.1 0.00 0.00 0.00 39 1016.8
20260507062136 59 234 7.0 19.1 0.00 0.00 0.00 38 1016.7
20260507062037 59 251 7.8 19.1 0.00 0.00 0.00 38 1016.7
20260507061940 59 306 8.7 19.1 0.00 0.00 0.00 38 1016.7
20260507061838 59 267 9.6 19.1 0.00 0.00 0.00 38 1016.5
20260507061737 59 259 9.6 19.1 0.00 0.00 0.00 38 1016.6
20260507061639 60 281 10.4 19.1 0.00 0.00 0.00 38 1016.6
20260507061540 60 225 10.4 19.1 0.00 0.00 0.00 38 1016.5
20260507061434 60 273 9.6 16.5 0.00 0.00 0.00 38 1016.5
20260507061335 60 274 8.7 20.9 0.00 0.00 0.00 38 1016.7
20260507061231 60 278 8.7 20.9 0.00 0.00 0.00 38 1016.5
20260507061126 60 259 9.6 20.9 0.00 0.00 0.00 37 1016.6
20260507061026 60 269 10.4 20.9 0.00 0.00 0.00 37 1016.5
20260507060931 60 255 9.6 20.9 0.00 0.00 0.00 37 1016.5
20260507060821 60 244 9.6 20.9 0.00 0.00 0.00 37 1016.4
20260507060716 60 237 10.4 20.9 0.00 0.00 0.00 37 1016.5
20260507060614 60 254 11.3 20.9 0.00 0.00 0.00 36 1016.3
20260507060526 60 234 11.3 20.9 0.00 0.00 0.00 36 1016.4
20260507060410 60 247 7.8 20.9 0.00 0.00 0.00 36 1016.4
20260507060314 60 257 7.8 16.5 0.00 0.00 0.00 36 1016.5
20260507060110 60 273 8.7 16.5 0.00 0.00 0.00 36 1016.3
20260507060042 60 273 8.7 16.5 0.00 0.00 0.00 36 1016.3
20260507060014 60 243 8.7 16.5 0.00 0.00 0.00 36 1016.2
20260507055950 60 246 10.4 16.5 0.00 0.00 0.00 35 1016.3
20260507055921 60 275 11.3 16.5 0.00 0.00 0.00 35 1016.2
20260507055612 60 258 10.4 16.5 0.00 0.00 0.00 35 1016.3
20260507055509 61 250 10.4 16.5 0.00 0.00 0.00 35 1016.3
20260507055424 61 255 9.6 16.5 0.00 0.00 0.00 35 1016.4
20260507055312 61 219 9.6 16.5 0.00 0.00 0.00 35 1016.4
20260507055109 61 214 7.0 15.6 0.00 0.00 0.00 35 1016.4
20260507055010 61 207 7.0 17.4 0.00 0.00 0.00 35 1016.4
20260507054916 61 227 7.0 17.4 0.00 0.00 0.00 35 1016.4
20260507054813 61 263 9.6 17.4 0.00 0.00 0.00 35 1016.4
20260507054612 61 226 8.7 17.4 0.00 0.00 0.00 34 1016.5
20260507054510 61 256 7.8 17.4 0.00 0.00 0.00 34 1016.5
20260507054412 61 238 8.7 23.5 0.00 0.00 0.00 34 1016.4
20260507054314 61 261 8.7 23.5 0.00 0.00 0.00 34 1016.5
20260507054113 61 234 7.0 23.5 0.00 0.00 0.00 34 1016.5
20260507054039 61 205 7.0 23.5 0.00 0.00 0.00 34 1016.5
20260507054015 61 229 9.6 23.5 0.00 0.00 0.00 34 1016.4
20260507053943 61 310 10.4 23.5 0.00 0.00 0.00 34 1016.4
20260507053634 61 275 12.2 23.5 0.00 0.00 0.00 34 1016.5
20260507053609 61 273 8.7 23.5 0.00 0.00 0.00 34 1016.4
20260507053548 61 259 7.8 17.4 0.00 0.00 0.00 34 1016.3
20260507053515 61 262 9.6 17.4 0.00 0.00 0.00 34 1016.3
20260507053421 61 255 9.6 17.4 0.00 0.00 0.00 33 1016.3
20260507053109 61 252 9.6 17.4 0.00 0.00 0.00 34 1016.2
20260507053012 61 242 7.8 17.4 0.00 0.00 0.00 33 1016.2
20260507052910 62 238 8.7 17.4 0.00 0.00 0.00 34 1016.0
20260507052812 62 243 10.4 17.4 0.00 0.00 0.00 33 1016.1
20260507052613 62 211 8.7 17.4 0.00 0.00 0.00 34 1016.1
20260507052510 62 252 8.7 14.8 0.00 0.00 0.00 34 1016.2
20260507052409 62 253 7.0 14.8 0.00 0.00 0.00 34 1016.2
20260507052310 62 220 7.0 15.6 0.00 0.00 0.00 34 1016.1
20260507052108 62 275 8.7 15.6 0.00 0.00 0.00 34 1016.1
20260507052010 62 237 8.7 15.6 0.00 0.00 0.00 34 1016.1
20260507051909 62 276 7.8 15.6 0.00 0.00 0.00 34 1016.1
20260507051810 62 250 7.8 15.6 0.00 0.00 0.00 34 1016.1
20260507051611 62 246 9.6 15.6 0.00 0.00 0.00 34 1016.0
20260507051509 62 291 10.4 15.6 0.00 0.00 0.00 34 1016.0
20260507051409 62 279 7.8 15.6 0.00 0.00 0.00 33 1016.0
20260507051311 62 250 9.6 16.5 0.00 0.00 0.00 33 1016.0
20260507051109 62 244 10.4 16.5 0.00 0.00 0.00 32 1016.0
20260507051010 62 263 9.6 16.5 0.00 0.00 0.00 33 1016.0
20260507050909 62 259 10.4 16.5 0.00 0.00 0.00 33 1015.9
20260507050814 62 267 11.3 16.5 0.00 0.00 0.00 32 1016.0
20260507050613 62 202 10.4 16.5 0.00 0.00 0.00 33 1016.1
20260507050508 62 255 9.6 16.5 0.00 0.00 0.00 33 1016.0
20260507050424 62 278 8.7 17.4 0.00 0.00 0.00 33 1015.8
20260507050323 62 213 7.8 17.4 0.00 0.00 0.00 33 1016.1
20260507050113 62 176 9.6 17.4 0.00 0.00 0.00 32 1016.1
20260507050009 62 242 11.3 17.4 0.00 0.00 0.00 32 1016.0
20260507045908 62 243 10.4 17.4 0.00 0.00 0.00 32 1016.1
20260507045812 62 262 9.6 17.4 0.00 0.00 0.00 32 1015.9
20260507045611 62 271 11.3 17.4 0.00 0.00 0.00 31 1015.9
20260507045508 62 267 8.7 17.4 0.00 0.00 0.00 32 1016.0
20260507045411 62 270 9.6 14.8 0.00 0.00 0.00 32 1016.1
20260507045310 62 254 9.6 14.8 0.00 0.00 0.00 32 1016.0
20260507045112 62 271 7.8 15.6 0.00 0.00 0.00 32 1016.0
20260507045017 62 236 7.8 15.6 0.00 0.00 0.00 32 1016.0
20260507044952 62 267 7.8 19.1 0.00 0.00 0.00 32 1015.9
20260507044920 62 215 6.1 19.1 0.00 0.00 0.00 32 1015.9
20260507044611 62 263 7.0 19.1 0.00 0.00 0.00 32 1015.8
20260507044544 62 252 7.8 19.1 0.00 0.00 0.00 32 1015.8
20260507044520 62 238 9.6 19.1 0.00 0.00 0.00 32 1015.8
20260507044449 62 265 10.4 19.1 0.00 0.00 0.00 31 1016.0
20260507044424 63 265 10.4 19.1 0.00 0.00 0.00 31 1015.8
20260507044109 63 247 10.4 19.1 0.00 0.00 0.00 32 1015.9
20260507044009 63 232 9.6 19.1 0.00 0.00 0.00 31 1015.7
20260507043910 63 244 9.6 16.5 0.00 0.00 0.00 31 1015.7
20260507043813 63 256 9.6 16.5 0.00 0.00 0.00 31 1015.7
20260507043610 63 240 9.6 16.5 0.00 0.00 0.00 32 1015.9
20260507043509 63 290 10.4 16.5 0.00 0.00 0.00 32 1015.9
20260507043414 63 221 8.7 16.5 0.00 0.00 0.00 32 1015.8
20260507043311 63 268 8.7 15.6 0.00 0.00 0.00 32 1015.9
20260507043110 63 245 7.0 15.6 0.00 0.00 0.00 32 1015.6
20260507043013 63 246 5.2 15.6 0.00 0.00 0.00 32 1015.8
20260507042911 63 242 6.1 15.6 0.00 0.00 0.00 33 1015.7
20260507042818 63 238 7.8 15.6 0.00 0.00 0.00 32 1015.6
20260507042613 63 222 6.1 15.6 0.00 0.00 0.00 32 1015.7
20260507042538 63 225 7.0 13.9 0.00 0.00 0.00 32 1015.8
20260507042513 63 252 6.1 13.9 0.00 0.00 0.00 32 1015.7
20260507042446 63 280 7.0 18.2 0.00 0.00 0.00 31 1015.7
20260507042207 63 217 7.0 19.1 0.00 0.00 0.00 32 1015.7
20260507042109 63 240 7.8 19.1 0.00 0.00 0.00 31 1015.7
20260507042008 62 266 9.6 21.7 0.00 0.00 0.00 31 1015.8
20260507041907 62 296 10.4 21.7 0.00 0.00 0.00 31 1015.7
20260507041805 62 264 9.6 21.7 0.00 0.00 0.00 31 1015.7
20260507041703 62 267 9.6 21.7 0.00 0.00 0.00 30 1015.6
20260507041600 62 263 11.3 21.7 0.00 0.00 0.00 30 1015.7
20260507041501 63 217 13.0 21.7 0.00 0.00 0.00 30 1015.6
20260507041359 63 244 12.2 21.7 0.00 0.00 0.00 30 1015.6
20260507041254 63 284 11.3 21.7 0.00 0.00 0.00 31 1015.6
20260507041152 63 243 11.3 21.7 0.00 0.00 0.00 31 1015.5
20260507041050 63 247 9.6 21.7 0.00 0.00 0.00 31 1015.5
20260507040952 63 257 9.6 17.4 0.00 0.00 0.00 31 1015.5
20260507040847 63 267 10.4 17.4 0.00 0.00 0.00 30 1015.6
20260507040749 63 273 10.4 16.5 0.00 0.00 0.00 31 1015.5
20260507040650 63 250 8.7 16.5 0.00 0.00 0.00 31 1015.4
20260507040542 63 237 7.8 16.5 0.00 0.00 0.00 32 1015.3
20260507040437 63 232 9.6 16.5 0.00 0.00 0.00 31 1015.3
20260507040349 63 233 10.4 16.5 0.00 0.00 0.00 31 1015.3
20260507040237 63 249 9.6 15.6 0.00 0.00 0.00 31 1015.3
20260507040139 63 271 8.7 15.6 0.00 0.00 0.00 32 1015.4
20260507040049 63 252 9.6 15.6 0.00 0.00 0.00 31 1015.3
20260507040030 63 238 10.4 15.6 0.00 0.00 0.00 31 1015.1
20260507040003 63 208 10.4 15.6 0.00 0.00 0.00 30 1015.2
20260507035931 63 265 8.7 23.5 0.00 0.00 0.00 31 1015.3
20260507035637 63 250 8.7 23.5 0.00 0.00 0.00 30 1015.1
20260507035539 63 203 10.4 23.5 0.00 0.00 0.00 30 1015.3
20260507035439 63 253 10.4 23.5 0.00 0.00 0.00 30 1015.2
20260507035340 63 238 10.4 23.5 0.00 0.00 0.00 29 1015.1
20260507035237 63 238 10.4 23.5 0.00 0.00 0.00 29 1015.1
20260507035139 63 229 10.4 23.5 0.00 0.00 0.00 30 1015.1
20260507035057 63 279 10.4 23.5 0.00 0.00 0.00 30 1015.1
20260507035032 63 238 9.6 23.5 0.00 0.00 0.00 30 1015.2
20260507035004 63 162 9.6 23.5 0.00 0.00 0.00 29 1015.2
20260507034929 63 238 11.3 15.6 0.00 0.00 0.00 29 1015.3
20260507034636 63 251 11.3 15.6 0.00 0.00 0.00 29 1015.1
20260507034530 63 241 10.4 15.6 0.00 0.00 0.00 29 1015.1
20260507034432 63 243 9.6 15.6 0.00 0.00 0.00 29 1015.1
20260507034331 63 261 11.3 15.6 0.00 0.00 0.00 29 1015.2
20260507034229 64 236 9.6 15.6 0.00 0.00 0.00 30 1015.1
20260507034126 63 238 8.7 15.6 0.00 0.00 0.00 31 1015.0
20260507034023 63 259 7.8 15.6 0.00 0.00 0.00 31 1014.9
20260507033922 63 275 7.8 15.6 0.00 0.00 0.00 31 1015.1
20260507033820 63 232 10.4 15.6 0.00 0.00 0.00 30 1014.9
20260507033719 64 196 8.7 15.6 0.00 0.00 0.00 30 1015.0
20260507033615 64 259 7.8 15.6 0.00 0.00 0.00 30 1015.1
20260507033515 64 240 8.7 15.6 0.00 0.00 0.00 30 1014.9
20260507033411 64 261 8.7 15.6 0.00 0.00 0.00 30 1014.9
20260507033334 64 281 9.6 15.6 0.00 0.00 0.00 30 1015.0
20260507033111 64 244 7.8 15.6 0.00 0.00 0.00 29 1015.0
20260507033010 64 233 8.7 15.6 0.00 0.00 0.00 30 1015.0
20260507032813 64 263 8.7 15.6 0.00 0.00 0.00 30 1015.0
20260507032610 64 230 7.8 13.9 0.00 0.00 0.00 30 1015.0
20260507032509 64 234 8.7 13.0 0.00 0.00 0.00 30 1015.0
20260507032409 64 281 7.8 13.0 0.00 0.00 0.00 30 1015.0
20260507032311 64 267 7.8 13.0 0.00 0.00 0.00 30 1015.0
20260507032111 64 241 7.0 13.0 0.00 0.00 0.00 29 1014.9
20260507032009 64 238 7.0 15.6 0.00 0.00 0.00 29 1015.0
20260507031909 64 257 7.8 15.6 0.00 0.00 0.00 30 1015.0
20260507031813 64 268 7.0 15.6 0.00 0.00 0.00 29 1014.9
20260507031614 63 269 7.8 15.6 0.00 0.00 0.00 30 1015.1
20260507031542 63 256 8.7 15.6 0.00 0.00 0.00 29 1015.0
20260507031517 63 275 11.3 15.6 0.00 0.00 0.00 29 1015.0
20260507031453 63 269 12.2 17.4 0.00 0.00 0.00 29 1015.2
20260507031422 63 267 12.2 17.4 0.00 0.00 0.00 29 1015.2
20260507031110 63 255 11.3 17.4 0.00 0.00 0.00 28 1015.1
20260507031043 64 270 10.4 17.4 0.00 0.00 0.00 28 1015.0
20260507031019 64 239 10.4 17.4 0.00 0.00 0.00 29 1015.1
20260507030956 64 225 9.6 17.4 0.00 0.00 0.00 29 1015.1
20260507030922 64 273 9.6 17.4 0.00 0.00 0.00 28 1015.0
20260507030608 64 281 11.3 17.4 0.00 0.00 0.00 28 1015.1
20260507030508 64 279 10.4 17.4 0.00 0.00 0.00 28 1015.0
20260507030410 64 260 7.8 17.4 0.00 0.00 0.00 29 1015.1
20260507030318 64 217 10.4 16.5 0.00 0.00 0.00 29 1015.2
20260507030109 64 277 9.6 16.5 0.00 0.00 0.00 28 1014.9
20260507030009 64 311 8.7 15.6 0.00 0.00 0.00 28 1015.0
20260507025910 64 248 7.0 15.6 0.00 0.00 0.00 30 1015.0
20260507025811 64 247 7.8 12.2 0.00 0.00 0.00 31 1015.0
20260507025613 64 233 6.1 13.0 0.00 0.00 0.00 31 1015.0
20260507025550 64 248 4.3 13.0 0.00 0.00 0.00 32 1014.9
20260507025528 64 265 5.2 13.0 0.00 0.00 0.00 32 1015.0
20260507025500 64 260 6.1 17.4 0.00 0.00 0.00 32 1015.0
20260507025208 64 265 6.1 17.4 0.00 0.00 0.00 32 1015.0
20260507025106 64 226 7.0 17.4 0.00 0.00 0.00 31 1015.0
20260507025004 64 249 7.0 17.4 0.00 0.00 0.00 32 1014.9
20260507024903 64 257 7.0 17.4 0.00 0.00 0.00 31 1014.9
20260507024803 64 244 6.1 17.4 0.00 0.00 0.00 32 1014.9
20260507024701 63 269 7.0 17.4 0.00 0.00 0.00 32 1014.8
20260507024554 63 249 10.4 17.4 0.00 0.00 0.00 31 1014.8
20260507024451 64 264 10.4 17.4 0.00 0.00 0.00 31 1015.0
20260507024351 64 275 9.6 17.4 0.00 0.00 0.00 31 1014.9
20260507024250 64 244 9.6 14.8 0.00 0.00 0.00 31 1014.8
20260507024149 64 259 8.7 14.8 0.00 0.00 0.00 32 1014.9
20260507024046 64 265 7.8 14.8 0.00 0.00 0.00 32 1014.9
20260507023944 64 250 8.7 14.8 0.00 0.00 0.00 31 1014.9
20260507023843 64 240 8.7 15.6 0.00 0.00 0.00 31 1014.9
20260507023744 64 250 7.8 16.5 0.00 0.00 0.00 31 1014.9
20260507023644 64 220 7.0 20.9 0.00 0.00 0.00 31 1014.9
20260507023540 63 250 7.8 20.9 0.00 0.00 0.00 31 1015.0
20260507023438 63 253 8.7 20.9 0.00 0.00 0.00 30 1014.9
20260507023339 63 247 7.8 20.9 0.00 0.00 0.00 30 1014.9
20260507023243 63 271 7.0 20.9 0.00 0.00 0.00 31 1014.9
20260507023137 63 273 7.0 20.9 0.00 0.00 0.00 32 1015.0
20260507023042 63 246 9.6 20.9 0.00 0.00 0.00 33 1015.0
20260507022938 63 226 12.2 20.9 0.00 0.00 0.00 32 1015.1
20260507022837 63 267 13.0 20.9 0.00 0.00 0.00 32 1014.9
20260507022736 63 274 12.2 20.9 0.00 0.00 0.00 32 1014.9
20260507022637 63 263 12.2 16.5 0.00 0.00 0.00 32 1015.1
20260507022540 63 273 9.6 16.5 0.00 0.00 0.00 32 1015.0
20260507022440 63 249 7.0 16.5 0.00 0.00 0.00 33 1015.1
20260507022341 63 259 7.0 15.6 0.00 0.00 0.00 33 1015.0
20260507022238 63 244 7.8 15.6 0.00 0.00 0.00 33 1014.9
20260507022140 63 253 9.6 15.6 0.00 0.00 0.00 32 1015.0
20260507022036 63 262 10.4 15.6 0.00 0.00 0.00 32 1015.2
20260507021930 63 266 9.6 13.9 0.00 0.00 0.00 33 1015.1
20260507021833 63 247 7.8 14.8 0.00 0.00 0.00 33 1015.1
20260507021730 63 261 8.7 15.6 0.00 0.00 0.00 33 1015.2
20260507021630 63 312 9.6 20.9 0.00 0.00 0.00 32 1015.1
20260507021528 63 252 9.6 20.9 0.00 0.00 0.00 33 1015.0
20260507021422 63 289 7.0 20.9 0.00 0.00 0.00 33 1015.4
20260507021326 63 298 7.0 20.9 0.00 0.00 0.00 32 1015.3
20260507021221 63 264 10.4 21.7 0.00 0.00 0.00 32 1015.1
20260507021119 63 181 11.3 21.7 0.00 0.00 0.00 31 1015.2
20260507021016 63 266 11.3 21.7 0.00 0.00 0.00 31 1015.2
20260507020916 63 261 11.3 21.7 0.00 0.00 0.00 31 1015.1
20260507020820 63 248 11.3 21.7 0.00 0.00 0.00 31 1015.2
20260507020613 63 254 13.0 21.7 0.00 0.00 0.00 30 1015.0
20260507020512 63 257 13.0 21.7 0.00 0.00 0.00 30 1015.0
20260507020411 63 279 11.3 21.7 0.00 0.00 0.00 31 1015.1
20260507020323 63 273 11.3 20.9 0.00 0.00 0.00 31 1015.0
20260507020109 63 247 13.0 20.9 0.00 0.00 0.00 31 1015.1
20260507020011 63 247 13.0 20.9 0.00 0.00 0.00 30 1015.1
20260507015912 63 261 11.3 20.9 0.00 0.00 0.00 31 1015.0
20260507015814 63 263 9.6 21.7 0.00 0.00 0.00 31 1014.9
20260507015610 63 290 12.2 21.7 0.00 0.00 0.00 31 1015.0
20260507015509 63 263 13.0 21.7 0.00 0.00 0.00 31 1015.1
20260507015409 63 262 13.0 21.7 0.00 0.00 0.00 30 1015.0
20260507015312 63 240 13.0 21.7 0.00 0.00 0.00 31 1014.9
20260507015109 63 263 13.0 21.7 0.00 0.00 0.00 32 1015.0
20260507015010 63 239 11.3 21.7 0.00 0.00 0.00 33 1015.1
20260507014909 63 276 8.7 21.7 0.00 0.00 0.00 37 1015.1
20260507014822 63 273 7.0 13.9 0.00 0.00 0.00 39 1015.0
20260507014609 63 253 8.7 13.9 0.00 0.00 0.00 40 1015.1
20260507014510 63 236 7.0 13.9 0.00 0.00 0.00 42 1015.1
20260507014409 63 256 7.0 18.2 0.00 0.00 0.00 44 1015.1
20260507014311 63 263 7.8 18.2 0.00 0.00 0.00 44 1015.0
20260507014110 62 271 9.6 18.2 0.00 0.00 0.00 44 1015.2
20260507014008 62 272 7.8 18.2 0.00 0.00 0.00 45 1015.1
20260507013909 62 286 7.8 18.2 0.00 0.00 0.00 46 1015.0
20260507013825 62 244 8.7 18.2 0.00 0.00 0.00 46 1015.0
20260507013609 61 234 9.6 18.2 0.00 0.00 0.00 47 1015.1
20260507013511 61 272 7.8 18.2 0.00 0.00 0.00 49 1015.1
20260507013409 60 255 8.7 15.6 0.00 0.00 0.00 50 1015.1
20260507013313 60 244 11.3 15.6 0.00 0.00 0.00 50 1015.0
20260507013112 59 251 8.7 15.6 0.00 0.00 0.00 53 1015.0
20260507013010 59 212 7.0 11.3 0.00 0.00 0.00 54 1015.2
20260507012909 59 269 6.1 11.3 0.00 0.00 0.00 55 1015.3
20260507012811 59 243 7.0 13.0 0.00 0.00 0.00 55 1015.4
20260507012610 59 220 6.1 13.0 0.00 0.00 0.00 56 1015.4
20260507012509 59 217 7.0 13.0 0.00 0.00 0.00 56 1015.4
20260507012409 59 236 7.0 13.0 0.00 0.00 0.00 56 1015.4
20260507012310 59 258 6.1 13.0 0.00 0.00 0.00 56 1015.4
20260507012108 59 249 7.8 13.0 0.00 0.00 0.00 56 1015.5
20260507012010 59 263 9.6 13.0 0.00 0.00 0.00 56 1015.4
20260507011909 59 241 7.8 13.0 0.00 0.00 0.00 55 1015.4
20260507011814 59 254 6.1 12.2 0.00 0.00 0.00 55 1015.4
20260507011608 59 223 7.8 12.2 0.00 0.00 0.00 55 1015.4
20260507011511 59 320 7.8 12.2 0.00 0.00 0.00 56 1015.4
20260507011412 59 256 7.0 12.2 0.00 0.00 0.00 56 1015.4
20260507011304 59 236 7.0 15.6 0.00 0.00 0.00 56 1015.5
20260507011159 59 250 7.0 15.6 0.00 0.00 0.00 56 1015.5
20260507011101 59 229 7.8 15.6 0.00 0.00 0.00 56 1015.4
20260507010959 59 246 6.1 15.6 0.00 0.00 0.00 56 1015.5
20260507010857 59 215 7.0 15.6 0.00 0.00 0.00 56 1015.5
20260507010752 59 240 7.8 15.6 0.00 0.00 0.00 56 1015.4
20260507010649 60 232 7.0 15.6 0.00 0.00 0.00 56 1015.5
20260507010544 60 221 7.0 15.6 0.00 0.00 0.00 56 1015.4
20260507010437 60 244 7.0 15.6 0.00 0.00 0.00 56 1015.4
20260507010339 60 247 5.2 14.8 0.00 0.00 0.00 56 1015.4
20260507010238 60 244 5.2 15.6 0.00 0.00 0.00 56 1015.4
20260507010152 60 242 5.2 15.6 0.00 0.00 0.00 56 1015.4
20260507010038 60 256 7.0 15.6 0.00 0.00 0.00 55 1015.6
20260507005938 60 258 6.1 15.6 0.00 0.00 0.00 55 1015.5
20260507005838 61 243 6.1 15.6 0.00 0.00 0.00 54 1015.5
20260507005737 61 242 7.8 15.6 0.00 0.00 0.00 54 1015.5
20260507005638 61 200 8.7 15.6 0.00 0.00 0.00 54 1015.5
20260507005541 61 197 7.0 15.6 0.00 0.00 0.00 54 1015.4
20260507005441 62 219 7.0 15.6 0.00 0.00 0.00 53 1015.3
20260507005338 62 238 7.8 20.9 0.00 0.00 0.00 53 1015.4
20260507005237 62 211 7.0 20.9 0.00 0.00 0.00 53 1015.3
20260507005138 62 192 8.7 20.9 0.00 0.00 0.00 53 1015.2
20260507005037 63 234 8.7 20.9 0.00 0.00 0.00 53 1015.2
20260507004938 63 214 5.2 20.9 0.00 0.00 0.00 53 1015.2
20260507004741 63 205 5.2 20.9 0.00 0.00 0.00 53 1015.2
20260507004636 64 157 7.0 20.9 0.00 0.00 0.00 53 1015.3
20260507004542 64 231 11.3 20.9 0.00 0.00 0.00 53 1015.1
20260507004438 64 183 11.3 20.9 0.00 0.00 0.00 53 1015.0
20260507004341 64 248 6.1 15.6 0.00 0.00 0.00 55 1015.1
20260507004238 65 232 5.2 10.4 0.00 0.00 0.00 55 1015.0
20260507004139 65 273 5.2 10.4 0.00 0.00 0.00 55 1014.9
20260507004037 65 277 4.3 10.4 0.00 0.00 0.00 55 1014.7
20260507003936 65 281 2.6 8.7 0.00 0.00 0.00 55 1014.7
20260507003837 65 264 3.5 10.4 0.00 0.00 0.00 55 1014.8
20260507003737 65 230 3.5 10.4 0.00 0.00 0.00 54 1014.8
20260507003637 65 291 2.6 10.4 0.00 0.00 0.00 55 1014.7
20260507003539 65 221 2.6 10.4 0.00 0.00 0.00 54 1014.8
20260507003438 65 241 3.5 10.4 0.00 0.00 0.00 54 1014.7
20260507003337 65 229 5.2 10.4 0.00 0.00 0.00 54 1014.7
20260507003237 65 259 5.2 10.4 0.00 0.00 0.00 55 1014.8
20260507003142 65 238 4.3 10.4 0.00 0.00 0.00 55 1014.7
20260507003112 65 240 6.1 10.4 0.00 0.00 0.00 55 1014.8
20260507003022 65 230 6.1 10.4 0.00 0.00 0.00 57 1014.7
20260507002956 65 260 4.3 9.6 0.00 0.00 0.00 56 1014.6
20260507002931 65 295 3.5 9.6 0.00 0.00 0.00 57 1014.6
20260507002638 65 279 4.3 8.7 0.00 0.00 0.00 57 1014.7
20260507002539 65 288 4.3 10.4 0.00 0.00 0.00 56 1014.7
20260507002437 65 267 3.5 10.4 0.00 0.00 0.00 57 1014.6
20260507002337 65 249 3.5 10.4 0.00 0.00 0.00 57 1014.6
20260507002237 64 254 4.3 10.4 0.00 0.00 0.00 57 1014.6
20260507002141 64 252 4.3 10.4 0.00 0.00 0.00 58 1014.5
20260507002049 64 298 4.3 10.4 0.00 0.00 0.00 58 1014.6
20260507002024 64 250 5.2 10.4 0.00 0.00 0.00 58 1014.6
20260507001957 64 266 6.1 10.4 0.00 0.00 0.00 57 1014.6
20260507001932 64 298 5.2 10.4 0.00 0.00 0.00 57 1014.7
20260507001637 64 309 6.1 10.4 0.00 0.00 0.00 57 1014.6
20260507001540 64 298 6.1 10.4 0.00 0.00 0.00 57 1014.6
20260507001436 64 313 3.5 9.6 0.00 0.00 0.00 58 1014.6
20260507001336 64 254 3.5 10.4 0.00 0.00 0.00 59 1014.6
20260507001237 64 260 3.5 10.4 0.00 0.00 0.00 59 1014.6
20260507001137 63 282 2.6 10.4 0.00 0.00 0.00 59 1014.6
20260507001039 63 238 3.5 10.4 0.00 0.00 0.00 59 1014.6
20260507001016 63 284 5.2 10.4 0.00 0.00 0.00 58 1014.7
20260507000955 63 299 6.1 10.4 0.00 0.00 0.00 57 1014.7
20260507000929 63 314 7.0 10.4 0.00 0.00 0.00 58 1014.7
20260507000638 64 318 7.8 10.4 0.00 0.00 0.00 58 1014.7
20260507000538 63 292 6.1 10.4 0.00 0.00 0.00 58 1014.7
20260507000438 63 279 3.5 10.4 0.00 0.00 0.00 58 1014.8
20260507000336 63 257 2.6 8.7 0.00 0.00 0.00 58 1014.7
20260507000242 63 254 3.5 8.7 0.00 0.00 0.00 58 1014.8
20260507000139 63 286 5.2 8.7 0.00 0.00 0.00 58 1014.8
20260507000048 63 292 5.2 8.7 0.00 0.00 0.00 59 1014.8
20260507000023 63 295 3.5 8.7 0.00 0.00 0.00 59 1014.7
20260506235958 63 271 4.3 8.7 0.00 0.00 0.00 59 1014.9
20260506235928 63 276 5.2 8.7 0.00 0.00 0.00 59 1014.8
20260506235639 63 313 5.2 8.7 0.00 0.00 0.00 58 1014.8
20260506235546 63 305 5.2 8.7 0.00 0.00 0.00 58 1014.8
20260506235438 63 269 5.2 8.7 0.00 0.00 0.00 59 1014.8
20260506235337 62 279 4.3 8.7 0.00 0.00 0.00 59 1014.9
20260506235236 62 316 4.3 8.7 0.00 0.00 0.00 59 1014.9
20260506235140 62 308 5.2 9.6 0.00 0.00 0.00 59 1014.9
20260506235046 62 302 5.2 9.6 0.00 0.00 0.00 59 1014.9
20260506234936 62 263 5.2 9.6 0.00 0.00 0.00 58 1014.9
20260506234841 62 304 4.3 9.6 0.00 0.00 0.00 58 1014.9
20260506234810 63 309 4.3 9.6 0.00 0.00 0.00 58 1014.9
20260506234740 63 327 4.3 9.6 0.00 0.00 0.00 59 1014.8
20260506234721 63 268 3.5 9.6 0.00 0.00 0.00 59 1014.8
20260506234653 62 252 4.3 9.6 0.00 0.00 0.00 58 1014.9
20260506234625 62 270 6.1 9.6 0.00 0.00 0.00 58 1014.9
20260506234602 62 270 4.3 9.6 0.00 0.00 0.00 59 1014.9
20260506234325 62 286 2.6 9.6 0.00 0.00 0.00 59 1014.8
20260506234043 62 290 4.3 9.6 0.00 0.00 0.00 59 1014.8
20260506234018 62 299 4.3 9.6 0.00 0.00 0.00 59 1014.9
20260506233957 62 288 5.2 9.6 0.00 0.00 0.00 59 1014.9
20260506233928 62 239 6.1 9.6 0.00 0.00 0.00 58 1014.9
20260506233615 62 280 5.2 8.7 0.00 0.00 0.00 59 1014.8
20260506233534 62 280 5.2 8.7 0.00 0.00 0.00 60 1014.9
20260506233511 62 267 3.5 7.8 0.00 0.00 0.00 61 1014.9
20260506233447 62 273 4.3 7.8 0.00 0.00 0.00 61 1014.9
20260506233423 61 298 4.3 7.8 0.00 0.00 0.00 61 1014.8
20260506233113 61 282 4.3 7.8 0.00 0.00 0.00 60 1014.8
20260506233010 61 314 4.3 7.8 0.00 0.00 0.00 60 1014.8
20260506232925 61 276 3.5 7.8 0.00 0.00 0.00 61 1014.7
20260506232812 61 301 3.5 8.7 0.00 0.00 0.00 61 1014.8
20260506232608 61 308 5.2 8.7 0.00 0.00 0.00 60 1014.9
20260506232510 61 299 5.2 8.7 0.00 0.00 0.00 60 1014.9
20260506232410 61 306 5.2 8.7 0.00 0.00 0.00 60 1014.8
20260506232326 61 313 3.5 8.7 0.00 0.00 0.00 60 1014.8
20260506232108 61 294 4.3 8.7 0.00 0.00 0.00 61 1014.8
20260506232011 61 290 5.2 8.7 0.00 0.00 0.00 60 1014.8
20260506231914 61 310 6.1 8.7 0.00 0.00 0.00 60 1014.8
20260506231810 61 279 5.2 8.7 0.00 0.00 0.00 60 1014.9
20260506231610 61 309 4.3 10.4 0.00 0.00 0.00 61 1014.9
20260506231520 61 265 5.2 10.4 0.00 0.00 0.00 61 1014.9
20260506231412 61 290 5.2 10.4 0.00 0.00 0.00 62 1014.9
20260506231317 61 282 5.2 10.4 0.00 0.00 0.00 62 1014.9
20260506231113 61 325 6.1 10.4 0.00 0.00 0.00 61 1014.9
20260506231014 61 281 6.1 10.4 0.00 0.00 0.00 61 1014.9
20260506230813 61 296 5.2 10.4 0.00 0.00 0.00 62 1014.9
20260506230612 61 323 5.2 7.8 0.00 0.00 0.00 62 1014.9
20260506230528 61 321 4.3 7.8 0.00 0.00 0.00 62 1014.9
20260506230410 61 323 5.2 7.8 0.00 0.00 0.00 62 1014.9
20260506230311 61 309 6.1 7.8 0.00 0.00 0.00 63 1015.0
20260506230111 61 277 1.7 7.8 0.00 0.00 0.00 64 1014.9
20260506230012 60 267 2.6 7.0 0.00 0.00 0.00 64 1014.9
20260506225916 60 334 2.6 7.0 0.00 0.00 0.00 64 1014.9
20260506225820 60 275 2.6 7.0 0.00 0.00 0.00 64 1014.9
20260506225609 60 313 2.6 7.0 0.00 0.00 0.00 65 1014.9
20260506225511 60 273 3.5 7.0 0.00 0.00 0.00 65 1015.0
20260506225411 60 263 2.6 7.0 0.00 0.00 0.00 65 1015.0
20260506225310 60 271 3.5 7.0 0.00 0.00 0.00 66 1014.9
20260506225108 59 313 3.5 7.8 0.00 0.00 0.00 66 1015.0
20260506225011 59 290 5.2 7.8 0.00 0.00 0.00 65 1014.9
20260506224908 59 311 4.3 7.8 0.00 0.00 0.00 65 1014.9
20260506224811 59 308 2.6 7.8 0.00 0.00 0.00 66 1014.9
20260506224612 59 312 2.6 7.8 0.00 0.00 0.00 66 1014.9
20260506224508 59 351 3.5 7.8 0.00 0.00 0.00 67 1015.0
20260506224410 59 277 3.5 7.8 0.00 0.00 0.00 67 1014.9
20260506224314 59 279 2.6 7.8 0.00 0.00 0.00 67 1014.9
20260506224110 59 303 3.5 7.8 0.00 0.00 0.00 67 1014.9
20260506224009 59 295 3.5 7.8 0.00 0.00 0.00 68 1015.0
20260506223910 58 288 3.5 7.8 0.00 0.00 0.00 67 1015.0
20260506223812 58 329 4.3 7.8 0.00 0.00 0.00 68 1014.9
20260506223615 58 288 3.5 7.8 0.00 0.00 0.00 68 1014.9
20260506223511 58 340 2.6 7.0 0.00 0.00 0.00 68 1014.9
20260506223411 58 305 3.5 6.1 0.00 0.00 0.00 68 1014.9
20260506223310 58 305 3.5 7.0 0.00 0.00 0.00 69 1015.0
20260506223111 58 309 2.6 7.0 0.00 0.00 0.00 69 1014.9
20260506223009 58 313 2.6 7.0 0.00 0.00 0.00 70 1015.0
20260506222912 58 287 3.5 7.0 0.00 0.00 0.00 69 1014.8
20260506222811 58 292 3.5 7.0 0.00 0.00 0.00 70 1015.0
20260506222609 57 304 3.5 7.0 0.00 0.00 0.00 70 1015.0
20260506222510 57 323 3.5 7.0 0.00 0.00 0.00 70 1015.0
20260506222411 57 306 3.5 7.0 0.00 0.00 0.00 71 1014.9
20260506222315 57 352 2.6 6.1 0.00 0.00 0.00 71 1014.9
20260506222111 57 315 3.5 6.1 0.00 0.00 0.00 72 1014.9
20260506222009 57 271 3.5 6.1 0.00 0.00 0.00 71 1014.9
20260506221909 57 323 3.5 5.2 0.00 0.00 0.00 71 1014.9
20260506221808 56 308 3.5 5.2 0.00 0.00 0.00 72 1014.9
20260506221705 56 312 3.5 5.2 0.00 0.00 0.00 72 1015.0
20260506221606 56 334 2.6 5.2 0.00 0.00 0.00 73 1014.9
20260506221501 56 299 3.5 5.2 0.00 0.00 0.00 73 1014.9
20260506221357 56 296 2.6 5.2 0.00 0.00 0.00 74 1014.8
20260506221255 56 296 1.7 5.2 0.00 0.00 0.00 74 1014.9
20260506221154 56 304 1.7 5.2 0.00 0.00 0.00 74 1015.0
20260506221050 56 295 2.6 5.2 0.00 0.00 0.00 74 1014.9
20260506221027 56 284 2.6 5.2 0.00 0.00 0.00 74 1014.9
20260506220957 56 311 2.6 5.2 0.00 0.00 0.00 75 1014.9
20260506220933 55 317 2.6 5.2 0.00 0.00 0.00 76 1014.9
20260506220641 55 301 1.7 5.2 0.00 0.00 0.00 76 1014.8
20260506220559 55 303 1.7 5.2 0.00 0.00 0.00 77 1014.8
20260506220439 55 301 2.6 5.2 0.00 0.00 0.00 77 1014.8
20260506220337 55 302 2.6 5.2 0.00 0.00 0.00 78 1014.8
20260506220239 55 276 1.7 5.2 0.00 0.00 0.00 78 1014.9
20260506220138 54 281 1.7 5.2 0.00 0.00 0.00 78 1014.8
20260506220039 54 304 1.7 3.5 0.00 0.00 0.00 79 1014.9
20260506215939 54 295 1.7 5.2 0.00 0.00 0.00 79 1014.8
20260506215844 54 304 1.7 5.2 0.00 0.00 0.00 79 1014.8
20260506215739 54 288 1.7 5.2 0.00 0.00 0.00 80 1014.8
20260506215640 53 314 1.7 5.2 0.00 0.00 0.00 80 1014.8
20260506215539 53 315 1.7 5.2 0.00 0.00 0.00 80 1014.8
20260506215440 53 291 1.7 5.2 0.00 0.00 0.00 80 1014.9
20260506215337 53 276 1.7 5.2 0.00 0.00 0.00 80 1014.7
20260506215238 53 290 2.6 5.2 0.00 0.00 0.00 80 1014.7
20260506215137 53 306 2.6 5.2 0.00 0.00 0.00 81 1014.7
20260506215055 53 294 2.6 5.2 0.00 0.00 0.00 81 1014.8
20260506215030 53 323 1.7 5.2 0.00 0.00 0.00 81 1014.8
20260506214957 53 314 1.7 6.1 0.00 0.00 0.00 81 1014.8
20260506214930 53 290 1.7 6.1 0.00 0.00 0.00 81 1014.8
20260506214639 53 301 2.6 6.1 0.00 0.00 0.00 81 1014.7
20260506214543 52 332 2.6 6.1 0.00 0.00 0.00 82 1014.7
20260506214438 52 276 1.7 6.1 0.00 0.00 0.00 82 1014.7
20260506214337 52 299 1.7 6.1 0.00 0.00 0.00 82 1014.8
20260506214236 52 285 1.7 6.1 0.00 0.00 0.00 82 1014.7
20260506214140 52 290 3.5 6.1 0.00 0.00 0.00 82 1014.8
20260506214025 52 280 3.5 6.1 0.00 0.00 0.00 82 1014.7
20260506213919 52 289 3.5 5.2 0.00 0.00 0.00 83 1014.7
20260506213817 52 317 3.5 5.2 0.00 0.00 0.00 83 1014.8
20260506213613 51 286 1.7 5.2 0.00 0.00 0.00 83 1014.7
20260506213535 51 309 2.6 5.2 0.00 0.00 0.00 83 1014.6
20260506213516 51 282 2.6 5.2 0.00 0.00 0.00 83 1014.7
20260506213448 51 294 2.6 5.2 0.00 0.00 0.00 83 1014.8
20260506213423 51 306 1.7 5.2 0.00 0.00 0.00 84 1014.7
20260506213112 51 299 1.7 5.2 0.00 0.00 0.00 84 1014.7
20260506213015 51 295 1.7 5.2 0.00 0.00 0.00 84 1014.7
20260506212910 51 282 1.7 5.2 0.00 0.00 0.00 84 1014.6
20260506212818 51 287 1.7 5.2 0.00 0.00 0.00 84 1014.6
20260506212612 51 310 1.7 4.3 0.00 0.00 0.00 84 1014.5
20260506212507 51 279 2.6 4.3 0.00 0.00 0.00 84 1014.6
20260506212405 51 286 2.6 4.3 0.00 0.00 0.00 85 1014.5
20260506212306 51 290 2.6 4.3 0.00 0.00 0.00 85 1014.5
20260506212205 50 307 2.6 4.3 0.00 0.00 0.00 85 1014.5
20260506212101 50 327 2.6 4.3 0.00 0.00 0.00 85 1014.6
20260506211958 50 296 2.6 4.3 0.00 0.00 0.00 85 1014.5
20260506211900 50 315 2.6 4.3 0.00 0.00 0.00 85 1014.6
20260506211757 50 302 1.7 4.3 0.00 0.00 0.00 85 1014.5
20260506211656 50 296 1.7 4.3 0.00 0.00 0.00 85 1014.5
20260506211554 50 333 1.7 4.3 0.00 0.00 0.00 85 1014.4
20260506211455 50 315 2.6 4.3 0.00 0.00 0.00 86 1014.5
20260506211357 50 320 2.6 4.3 0.00 0.00 0.00 86 1014.5
20260506211253 50 300 1.7 4.3 0.00 0.00 0.00 86 1014.6
20260506211150 50 289 0.9 3.5 0.00 0.00 0.00 86 1014.4
20260506211048 50 286 0.9 3.5 0.00 0.00 0.00 86 1014.5
20260506210946 50 284 1.7 3.5 0.00 0.00 0.00 86 1014.4
20260506210852 50 279 1.7 3.5 0.00 0.00 0.00 86 1014.5
20260506210743 50 279 1.7 3.5 0.00 0.00 0.00 86 1014.4
20260506210645 50 281 1.7 3.5 0.00 0.00 0.00 86 1014.6
20260506210538 50 288 1.7 3.5 0.00 0.00 0.00 86 1014.6
20260506210437 50 278 1.7 3.5 0.00 0.00 0.00 86 1014.6
20260506210342 50 290 1.7 3.5 0.00 0.00 0.00 86 1014.6
20260506210238 50 294 1.7 3.5 0.00 0.00 0.00 86 1014.5
20260506210138 50 300 1.7 3.5 0.00 0.00 0.00 86 1014.5
20260506210040 50 290 1.7 3.5 0.00 0.00 0.00 86 1014.4
20260506205939 50 304 1.7 3.5 0.00 0.00 0.00 86 1014.5
20260506205844 50 288 2.6 3.5 0.00 0.00 0.00 86 1014.5
20260506205739 50 298 2.6 3.5 0.00 0.00 0.00 86 1014.5
20260506205638 50 290 2.6 3.5 0.00 0.00 0.00 86 1014.4
20260506205539 50 289 1.7 3.5 0.00 0.00 0.00 87 1014.5
20260506205439 50 288 1.7 3.5 0.00 0.00 0.00 87 1014.5
20260506205341 50 277 1.7 3.5 0.00 0.00 0.00 87 1014.5
20260506205237 50 273 1.7 3.5 0.00 0.00 0.00 87 1014.4
20260506205137 50 274 1.7 3.5 0.00 0.00 0.00 87 1014.4
20260506205051 50 277 1.7 3.5 0.00 0.00 0.00 87 1014.5
20260506205028 50 296 1.7 3.5 0.00 0.00 0.00 87 1014.4
20260506205009 50 299 2.6 3.5 0.00 0.00 0.00 87 1014.4
20260506204930 50 294 1.7 3.5 0.00 0.00 0.00 87 1014.5
20260506204637 50 284 1.7 3.5 0.00 0.00 0.00 87 1014.4
20260506204538 50 293 0.9 2.6 0.00 0.00 0.00 87 1014.3
20260506204436 50 290 1.7 2.6 0.00 0.00 0.00 87 1014.4
20260506204341 50 290 1.7 2.6 0.00 0.00 0.00 87 1014.4
20260506204237 50 290 1.7 2.6 0.00 0.00 0.00 87 1014.4
20260506204136 50 303 1.7 2.6 0.00 0.00 0.00 87 1014.4
20260506204028 50 300 1.7 2.6 0.00 0.00 0.00 88 1014.4
20260506203929 50 297 1.7 2.6 0.00 0.00 0.00 88 1014.3
20260506203835 50 281 1.7 3.5 0.00 0.00 0.00 88 1014.3
20260506203722 50 290 0.9 4.3 0.00 0.00 0.00 88 1014.3
20260506203619 50 302 0.0 4.3 0.00 0.00 0.00 88 1014.3
20260506203520 50 297 0.0 4.3 0.00 0.00 0.00 88 1014.3
20260506203417 50 273 0.0 4.3 0.00 0.00 0.00 88 1014.4
20260506203314 50 273 0.0 4.3 0.00 0.00 0.00 88 1014.3
20260506203115 50 273 1.7 4.3 0.00 0.00 0.00 88 1014.3
20260506203010 50 284 2.6 4.3 0.00 0.00 0.00 88 1014.3
20260506202910 50 309 2.6 4.3 0.00 0.00 0.00 88 1014.4
20260506202811 50 308 2.6 4.3 0.00 0.00 0.00 88 1014.4
20260506202613 50 304 1.7 3.5 0.00 0.00 0.00 89 1014.4
20260506202509 50 271 0.9 3.5 0.00 0.00 0.00 88 1014.3
20260506202407 50 286 0.9 3.5 0.00 0.00 0.00 89 1014.3
20260506202306 50 296 0.9 3.5 0.00 0.00 0.00 89 1014.3
20260506202203 50 304 0.9 3.5 0.00 0.00 0.00 89 1014.3
20260506202105 50 305 1.7 3.5 0.00 0.00 0.00 89 1014.2
20260506202035 50 297 1.7 3.5 0.00 0.00 0.00 89 1014.3
20260506202013 50 308 1.7 3.5 0.00 0.00 0.00 89 1014.3
20260506201940 50 313 1.7 3.5 0.00 0.00 0.00 89 1014.3
20260506201701 50 301 1.7 3.5 0.00 0.00 0.00 89 1014.3
20260506201558 50 298 2.6 3.5 0.00 0.00 0.00 89 1014.3
20260506201456 50 296 1.7 3.5 0.00 0.00 0.00 89 1014.3
20260506201356 50 297 1.7 3.5 0.00 0.00 0.00 89 1014.3
20260506201250 50 313 1.7 5.2 0.00 0.00 0.00 89 1014.4
20260506201152 50 292 1.7 5.2 0.00 0.00 0.00 89 1014.4
20260506201047 50 279 0.9 5.2 0.00 0.00 0.00 89 1014.3
20260506200945 50 287 0.0 5.2 0.00 0.00 0.00 89 1014.3
20260506200841 50 287 0.9 5.2 0.00 0.00 0.00 89 1014.3
20260506200743 50 302 1.7 5.2 0.00 0.00 0.00 89 1014.4
20260506200640 50 278 0.9 5.2 0.00 0.00 0.00 89 1014.3
20260506200542 50 284 2.6 5.2 0.00 0.00 0.00 89 1014.4
20260506200438 50 260 1.7 5.2 0.00 0.00 0.00 89 1014.4
20260506200339 50 271 0.0 3.5 0.00 0.00 0.00 89 1014.3
20260506200239 50 281 0.0 3.5 0.00 0.00 0.00 89 1014.3
20260506200137 50 281 0.0 3.5 0.00 0.00 0.00 90 1014.4
20260506200039 50 281 0.0 3.5 0.00 0.00 0.00 89 1014.4
20260506195939 50 281 0.9 3.5 0.00 0.00 0.00 89 1014.4
20260506195838 50 281 0.9 3.5 0.00 0.00 0.00 90 1014.4
20260506195738 50 281 1.7 3.5 0.00 0.00 0.00 90 1014.3
20260506195637 50 280 1.7 3.5 0.00 0.00 0.00 89 1014.4
20260506195539 50 296 1.7 3.5 0.00 0.00 0.00 89 1014.4
20260506195437 50 296 1.7 2.6 0.00 0.00 0.00 89 1014.4
20260506195339 50 281 1.7 2.6 0.00 0.00 0.00 89 1014.5
20260506195237 50 274 1.7 2.6 0.00 0.00 0.00 89 1014.6
20260506195137 50 271 1.7 2.6 0.00 0.00 0.00 89 1014.5
20260506195037 50 279 1.7 2.6 0.00 0.00 0.00 89 1014.6
20260506194942 50 272 1.7 2.6 0.00 0.00 0.00 89 1014.6
20260506194830 50 279 1.7 2.6 0.00 0.00 0.00 89 1014.6
20260506194728 50 271 1.7 2.6 0.00 0.00 0.00 89 1014.6
20260506194630 50 271 1.7 2.6 0.00 0.00 0.00 89 1014.6
20260506194527 50 271 1.7 2.6 0.00 0.00 0.00 89 1014.7
20260506194427 50 274 0.9 2.6 0.00 0.00 0.00 89 1014.6
20260506194326 50 271 0.9 2.6 0.00 0.00 0.00 90 1014.7
20260506194227 50 265 0.9 2.6 0.00 0.00 0.00 90 1014.7
20260506194125 50 266 1.7 2.6 0.00 0.00 0.00 90 1014.7
20260506194024 50 271 1.7 2.6 0.00 0.00 0.00 90 1014.6
20260506193921 50 265 1.7 2.6 0.00 0.00 0.00 90 1014.6
20260506193818 50 264 1.7 2.6 0.00 0.00 0.00 90 1014.6
20260506193716 50 273 1.7 2.6 0.00 0.00 0.00 90 1014.6
20260506193613 50 262 1.7 2.6 0.00 0.00 0.00 90 1014.6
20260506193512 50 262 1.7 2.6 0.00 0.00 0.00 90 1014.6
20260506193410 50 234 1.7 2.6 0.00 0.00 0.00 90 1014.5
20260506193312 50 245 1.7 2.6 0.00 0.00 0.00 90 1014.5
20260506193214 50 264 1.7 2.6 0.00 0.00 0.00 90 1014.5
20260506193110 50 260 1.7 2.6 0.00 0.00 0.00 90 1014.5
20260506193011 50 263 0.9 2.6 0.00 0.00 0.00 90 1014.5
20260506192911 50 261 0.9 2.6 0.00 0.00 0.00 90 1014.5
20260506192811 50 261 0.9 2.6 0.00 0.00 0.00 89 1014.6
20260506192712 50 259 0.9 2.6 0.00 0.00 0.00 89 1014.5
20260506192610 50 246 0.9 2.6 0.00 0.00 0.00 89 1014.5
20260506192511 50 246 1.7 2.6 0.00 0.00 0.00 89 1014.5
20260506192411 50 242 1.7 2.6 0.00 0.00 0.00 89 1014.4
20260506192312 50 245 1.7 2.6 0.00 0.00 0.00 89 1014.4
20260506192212 50 239 1.7 2.6 0.00 0.00 0.00 89 1014.4
20260506192110 51 248 0.9 2.6 0.00 0.00 0.00 89 1014.3
20260506192009 51 254 0.9 2.6 0.00 0.00 0.00 89 1014.3
20260506191910 51 251 0.9 2.6 0.00 0.00 0.00 89 1014.3
20260506191813 51 251 0.9 2.6 0.00 0.00 0.00 89 1014.3
20260506191711 51 251 0.9 2.6 0.00 0.00 0.00 89 1014.3
20260506191609 51 251 0.9 2.6 0.00 0.00 0.00 89 1014.3
20260506191512 51 267 1.7 2.6 0.00 0.00 0.00 90 1014.3
20260506191410 51 267 1.7 2.6 0.00 0.00 0.00 89 1014.3
20260506191325 51 269 1.7 2.6 0.00 0.00 0.00 89 1014.4
20260506191210 51 265 1.7 2.6 0.00 0.00 0.00 89 1014.4
20260506191110 51 264 0.0 2.6 0.00 0.00 0.00 89 1014.3
20260506190909 51 281 0.0 0.0 0.00 0.00 0.00 90 1014.3
20260506190812 51 281 0.0 0.0 0.00 0.00 0.00 90 1014.2
20260506190710 51 281 0.0 0.0 0.00 0.00 0.00 89 1014.2
20260506190610 51 281 0.0 0.0 0.00 0.00 0.00 89 1014.2
20260506190511 51 281 0.0 0.0 0.00 0.00 0.00 89 1014.1
20260506190408 51 281 0.0 0.0 0.00 0.00 0.00 89 1014.1
20260506190311 51 281 0.0 0.0 0.00 0.00 0.00 89 1014.0
20260506190211 51 281 0.0 0.0 0.00 0.00 0.00 89 1014.1
20260506190113 51 281 0.0 0.0 0.00 0.00 0.00 89 1014.0
20260506190009 51 281 0.0 0.0 0.00 0.00 0.00 89 1014.0
20260506185909 51 281 0.0 0.0 0.00 0.00 0.00 89 1014.0
20260506185815 51 281 0.0 0.0 0.00 0.00 0.00 89 1014.0
20260506185711 51 281 0.0 0.0 0.00 0.00 0.00 89 1013.9
20260506185611 51 281 0.0 0.0 0.00 0.00 0.00 90 1013.8
20260506185512 51 281 0.0 0.0 0.00 0.00 0.00 90 1013.9
20260506185412 51 281 0.0 0.0 0.00 0.00 0.00 90 1013.9
20260506185313 51 281 0.0 0.0 0.00 0.00 0.00 90 1013.7
20260506185208 51 281 0.0 0.0 0.00 0.00 0.00 90 1013.9
20260506185109 51 281 0.0 0.0 0.00 0.00 0.00 90 1013.8
20260506185014 52 281 0.0 0.0 0.00 0.00 0.00 90 1013.8
20260506184911 52 281 0.0 0.0 0.00 0.00 0.00 90 1013.7
20260506184810 52 281 0.0 0.0 0.00 0.00 0.00 90 1013.7
20260506184711 52 281 0.0 0.0 0.00 0.00 0.00 90 1013.6
20260506184611 52 281 0.0 0.0 0.00 0.00 0.00 90 1013.7
20260506184514 52 281 0.0 0.0 0.00 0.00 0.00 90 1013.6
20260506184413 52 281 0.0 0.0 0.00 0.00 0.00 90 1013.6
20260506184310 52 281 0.0 0.0 0.00 0.00 0.00 90 1013.5
20260506184210 52 281 0.0 0.0 0.00 0.00 0.00 90 1013.6
20260506184109 52 281 0.0 0.0 0.00 0.00 0.00 90 1013.5
20260506184010 52 281 0.0 0.9 0.00 0.00 0.00 90 1013.6
20260506183908 52 281 0.0 0.9 0.00 0.00 0.00 90 1013.6
20260506183811 52 281 0.0 0.9 0.00 0.00 0.00 90 1013.5
20260506183716 52 281 0.0 0.9 0.00 0.00 0.00 90 1013.6
20260506183610 52 281 0.0 0.9 0.00 0.00 0.00 90 1013.6
20260506183511 52 281 0.0 0.9 0.00 0.00 0.00 90 1013.7
20260506183411 52 281 0.0 0.9 0.00 0.00 0.00 90 1013.6
20260506183310 52 281 0.0 0.9 0.00 0.00 0.00 90 1013.6
20260506183211 52 281 0.0 0.9 0.00 0.00 0.00 90 1013.6
20260506183109 52 281 0.0 1.7 0.00 0.00 0.00 90 1013.6
20260506183011 52 281 0.0 1.7 0.00 0.00 0.00 90 1013.6
20260506182915 52 281 0.0 1.7 0.00 0.00 0.00 90 1013.5
20260506182811 52 281 0.0 1.7 0.00 0.00 0.00 90 1013.6
20260506182711 52 281 0.0 1.7 0.00 0.00 0.00 90 1013.6
20260506182608 52 281 0.9 1.7 0.00 0.00 0.00 90 1013.6
20260506182547 52 281 0.0 2.6 0.00 0.00 0.00 90 1013.6
20260506182454 52 282 0.0 2.6 0.00 0.00 0.00 90 1013.6
20260506182432 52 281 0.9 2.6 0.00 0.00 0.00 90 1013.6
20260506182409 52 281 0.9 2.6 0.00 0.00 0.00 90 1013.8
20260506182111 52 281 0.9 2.6 0.00 0.00 0.00 90 1013.6
20260506182021 52 281 0.9 2.6 0.00 0.00 0.00 90 1013.6
20260506181956 52 281 0.9 2.6 0.00 0.00 0.00 90 1013.6
20260506181935 52 281 0.9 2.6 0.00 0.00 0.00 90 1013.6
20260506181911 52 281 0.9 2.6 0.00 0.00 0.00 90 1013.6
20260506181609 52 281 0.9 2.6 0.00 0.00 0.00 90 1013.6
20260506181513 52 283 0.9 2.6 0.00 0.00 0.00 90 1013.6
20260506181408 52 283 0.9 2.6 0.00 0.00 0.00 90 1013.6
20260506181311 52 283 1.7 2.6 0.00 0.00 0.00 90 1013.6
20260506181209 52 275 0.9 2.6 0.00 0.00 0.00 90 1013.6
20260506181108 53 279 0.9 2.6 0.00 0.00 0.00 90 1013.7
20260506181014 53 275 0.9 2.6 0.00 0.00 0.00 90 1013.6
20260506180950 53 278 1.7 2.6 0.00 0.00 0.00 90 1013.7
20260506180930 53 273 1.7 3.5 0.00 0.00 0.00 90 1013.8
20260506180906 53 275 1.7 3.5 0.00 0.00 0.00 90 1013.6
20260506180610 53 271 0.9 3.5 0.00 0.00 0.00 90 1013.7
20260506180515 53 267 1.7 3.5 0.00 0.00 0.00 90 1013.7
20260506180409 53 267 1.7 3.5 0.00 0.00 0.00 90 1013.7
20260506180312 53 267 1.7 3.5 0.00 0.00 0.00 90 1013.6
20260506180209 53 273 0.9 3.5 0.00 0.00 0.00 90 1013.7
20260506180109 53 271 1.7 3.5 0.00 0.00 0.00 90 1013.7
20260506180010 53 272 1.7 3.5 0.00 0.00 0.00 90 1013.7
20260506175909 53 280 1.7 3.5 0.00 0.00 0.00 90 1013.7
20260506175810 53 273 1.7 3.5 0.00 0.00 0.00 90 1013.6
20260506175709 53 273 1.7 3.5 0.00 0.00 0.00 90 1013.7
20260506175610 53 265 1.7 3.5 0.00 0.00 0.00 90 1013.7
20260506175538 53 271 1.7 3.5 0.00 0.00 0.00 90 1013.6
20260506175409 53 281 1.7 3.5 0.00 0.00 0.00 90 1013.7
20260506175309 53 271 1.7 3.5 0.00 0.00 0.00 90 1013.6
20260506175208 53 274 1.7 3.5 0.00 0.00 0.00 90 1013.7
20260506175109 53 273 1.7 3.5 0.00 0.00 0.00 90 1013.7
20260506175009 53 270 1.7 3.5 0.00 0.00 0.00 90 1013.7
20260506174909 53 273 1.7 3.5 0.00 0.00 0.00 90 1013.8
20260506174805 53 278 1.7 3.5 0.00 0.00 0.00 90 1013.8
20260506174701 53 274 1.7 3.5 0.00 0.00 0.00 90 1013.8
20260506174602 53 263 1.7 3.5 0.00 0.00 0.00 90 1013.8
20260506174501 53 267 1.7 3.5 0.00 0.00 0.00 90 1013.7
20260506174355 53 267 2.6 3.5 0.00 0.00 0.00 90 1013.8
20260506174255 53 270 2.6 3.5 0.00 0.00 0.00 90 1013.7
20260506174154 53 279 1.7 3.5 0.00 0.00 0.00 90 1013.7
20260506174055 53 268 1.7 3.5 0.00 0.00 0.00 90 1013.8
20260506174007 53 265 1.7 3.5 0.00 0.00 0.00 90 1013.7
20260506173943 53 268 1.7 3.5 0.00 0.00 0.00 90 1013.7
20260506173918 53 272 1.7 3.5 0.00 0.00 0.00 90 1013.7
20260506173852 53 268 1.7 3.5 0.00 0.00 0.00 90 1013.8
20260506173547 53 267 1.7 3.5 0.00 0.00 0.00 90 1013.8
20260506173446 53 268 1.7 3.5 0.00 0.00 0.00 89 1013.7
20260506173342 53 273 1.7 3.5 0.00 0.00 0.00 89 1013.8
20260506173238 53 275 0.9 2.6 0.00 0.00 0.00 89 1013.8
20260506173044 53 282 1.7 2.6 0.00 0.00 0.00 89 1013.9
20260506172939 53 274 0.9 2.6 0.00 0.00 0.00 89 1013.9
20260506172837 53 275 0.9 1.7 0.00 0.00 0.00 89 1013.9
20260506172736 53 273 0.9 1.7 0.00 0.00 0.00 89 1013.9
20260506172538 53 275 0.9 1.7 0.00 0.00 0.00 90 1013.9
20260506172439 53 275 0.9 1.7 0.00 0.00 0.00 90 1014.0
20260506172337 53 275 0.9 1.7 0.00 0.00 0.00 90 1014.0
20260506172238 53 276 0.9 1.7 0.00 0.00 0.00 90 1014.1
20260506172037 53 271 0.9 1.7 0.00 0.00 0.00 90 1014.1
20260506171938 54 271 0.0 1.7 0.00 0.00 0.00 90 1014.1
20260506171836 54 270 0.0 1.7 0.00 0.00 0.00 90 1014.1
20260506171737 54 270 0.9 1.7 0.00 0.00 0.00 90 1014.1
20260506171540 54 280 0.9 1.7 0.00 0.00 0.00 89 1014.2
20260506171437 54 280 0.9 1.7 0.00 0.00 0.00 89 1014.0
20260506171336 54 280 0.9 1.7 0.00 0.00 0.00 89 1014.1
20260506171237 54 280 0.0 1.7 0.00 0.00 0.00 89 1014.0
20260506171134 54 272 0.0 1.7 0.00 0.00 0.00 89 1014.0
20260506171026 54 272 0.0 2.6 0.00 0.00 0.00 89 1014.1
20260506170927 54 272 0.9 2.6 0.00 0.00 0.00 89 1014.1
20260506170819 54 272 0.9 2.6 0.00 0.00 0.00 89 1014.1
20260506170720 54 272 0.9 2.6 0.00 0.00 0.00 89 1014.1
20260506170617 54 272 0.9 2.6 0.00 0.00 0.00 89 1014.1
20260506170517 54 273 0.9 2.6 0.00 0.00 0.00 89 1014.1
20260506170414 54 275 1.7 2.6 0.00 0.00 0.00 89 1014.1
20260506170313 54 275 1.7 2.6 0.00 0.00 0.00 89 1014.1
20260506170213 54 270 1.7 2.6 0.00 0.00 0.00 89 1014.1
20260506170110 54 272 1.7 2.6 0.00 0.00 0.00 89 1014.1
20260506170011 54 270 1.7 2.6 0.00 0.00 0.00 89 1014.2
20260506165911 54 270 1.7 2.6 0.00 0.00 0.00 89 1014.1
20260506165810 54 269 1.7 2.6 0.00 0.00 0.00 89 1014.1
20260506165710 54 271 1.7 2.6 0.00 0.00 0.00 89 1014.1
20260506165609 54 273 1.7 2.6 0.00 0.00 0.00 89 1014.1
20260506165508 54 280 1.7 3.5 0.00 0.00 0.00 89 1014.1
20260506165410 54 275 1.7 3.5 0.00 0.00 0.00 89 1014.1
20260506165309 54 273 1.7 3.5 0.00 0.00 0.00 90 1014.2
20260506165209 54 271 1.7 3.5 0.00 0.00 0.00 90 1014.2
20260506165109 54 284 1.7 3.5 0.00 0.00 0.00 90 1014.1
20260506165011 54 271 1.7 3.5 0.00 0.00 0.00 90 1014.1
20260506164943 54 275 1.7 3.5 0.00 0.00 0.00 90 1014.2
20260506164926 54 279 1.7 3.5 0.00 0.00 0.00 90 1014.2
20260506164859 54 273 1.7 3.5 0.00 0.00 0.00 90 1014.3
20260506164612 54 272 1.7 3.5 0.00 0.00 0.00 90 1014.2
20260506164512 54 273 1.7 2.6 0.00 0.00 0.00 90 1014.2
20260506164410 54 272 1.7 2.6 0.00 0.00 0.00 89 1014.2
20260506164311 54 286 1.7 2.6 0.00 0.00 0.00 89 1014.2
20260506164208 54 279 1.7 2.6 0.00 0.00 0.00 89 1014.3
20260506164111 54 279 1.7 2.6 0.00 0.00 0.00 89 1014.4
20260506164009 54 279 1.7 3.5 0.00 0.00 0.00 89 1014.5
20260506163911 54 279 1.7 3.5 0.00 0.00 0.00 89 1014.4
20260506163812 54 271 1.7 3.5 0.00 0.00 0.00 89 1014.5
20260506163716 54 274 1.7 3.5 0.00 0.00 0.00 89 1014.5
20260506163610 54 271 1.7 3.5 0.00 0.00 0.00 89 1014.5
20260506163513 54 278 1.7 3.5 0.00 0.00 0.00 89 1014.5
20260506163410 54 274 1.7 3.5 0.00 0.00 0.00 89 1014.5
20260506163310 54 275 1.7 3.5 0.00 0.00 0.00 89 1014.6
20260506163208 55 273 1.7 3.5 0.00 0.00 0.00 89 1014.7
20260506163115 55 267 1.7 3.5 0.00 0.00 0.00 89 1014.6
20260506163010 55 269 1.7 3.5 0.00 0.00 0.00 89 1014.6
20260506162950 55 273 1.7 3.5 0.00 0.00 0.00 89 1014.6
20260506162926 55 261 1.7 3.5 0.00 0.00 0.00 89 1014.6
20260506162859 55 273 1.7 3.5 0.00 0.00 0.00 89 1014.6
20260506162610 55 272 1.7 3.5 0.00 0.00 0.00 89 1014.6
20260506162510 55 268 1.7 3.5 0.00 0.00 0.00 89 1014.7
20260506162424 55 269 1.7 3.5 0.00 0.00 0.00 89 1014.6
20260506162308 55 277 1.7 3.5 0.00 0.00 0.00 89 1014.6
20260506162212 55 273 1.7 3.5 0.00 0.00 0.00 89 1014.7
20260506162110 55 279 1.7 3.5 0.00 0.00 0.00 89 1014.7
20260506162009 55 268 1.7 2.6 0.00 0.00 0.00 89 1014.8
20260506161905 55 267 1.7 2.6 0.00 0.00 0.00 89 1014.7
20260506161805 55 263 1.7 2.6 0.00 0.00 0.00 90 1014.7
20260506161708 55 267 1.7 2.6 0.00 0.00 0.00 89 1014.7
20260506161604 55 279 1.7 2.6 0.00 0.00 0.00 89 1014.7
20260506161500 55 263 1.7 2.6 0.00 0.00 0.00 89 1014.6
20260506161359 55 263 1.7 2.6 0.00 0.00 0.00 89 1014.6
20260506161301 55 266 1.7 2.6 0.00 0.00 0.00 89 1014.6
20260506161156 55 269 1.7 2.6 0.00 0.00 0.00 89 1014.6
20260506161055 55 271 1.7 2.6 0.00 0.00 0.00 89 1014.7
20260506160955 55 276 0.9 2.6 0.00 0.00 0.00 89 1014.7
20260506160847 55 281 0.9 2.6 0.00 0.00 0.00 89 1014.7
20260506160744 55 275 1.7 2.6 0.00 0.00 0.00 89 1014.9
20260506160641 55 275 0.9 2.6 0.00 0.00 0.00 89 1014.9
20260506160538 55 269 0.9 1.7 0.00 0.00 0.00 90 1014.9
20260506160438 56 264 0.9 1.7 0.00 0.00 0.00 90 1014.9
20260506160339 56 249 0.9 1.7 0.00 0.00 0.00 90 1014.9
20260506160238 56 249 0.9 1.7 0.00 0.00 0.00 89 1014.9
20260506160043 56 259 0.9 2.6 0.00 0.00 0.00 90 1014.9
20260506155937 56 259 0.9 2.6 0.00 0.00 0.00 90 1015.0
20260506155839 56 271 0.0 2.6 0.00 0.00 0.00 90 1015.0
20260506155737 56 271 0.0 2.6 0.00 0.00 0.00 90 1015.0
20260506155538 56 271 0.9 2.6 0.00 0.00 0.00 89 1014.9
20260506155440 56 271 0.9 2.6 0.00 0.00 0.00 89 1014.9
20260506155403 56 271 0.9 2.6 0.00 0.00 0.00 89 1014.9
20260506155239 56 270 1.7 2.6 0.00 0.00 0.00 89 1014.9
20260506155138 56 275 1.7 2.6 0.00 0.00 0.00 89 1014.8
20260506155038 56 275 0.9 1.7 0.00 0.00 0.00 89 1014.9
20260506154941 56 275 0.0 1.7 0.00 0.00 0.00 89 1014.9
20260506154837 56 275 0.0 1.7 0.00 0.00 0.00 89 1015.0
20260506154738 56 275 0.0 1.7 0.00 0.00 0.00 90 1014.9
20260506154537 56 275 0.0 1.7 0.00 0.00 0.00 89 1014.9
20260506154455 56 275 0.9 1.7 0.00 0.00 0.00 89 1014.9
20260506154428 56 275 0.9 1.7 0.00 0.00 0.00 90 1014.8
20260506154410 56 275 0.9 2.6 0.00 0.00 0.00 89 1014.9
20260506154341 56 275 0.9 2.6 0.00 0.00 0.00 89 1014.9
20260506154038 56 275 0.9 2.6 0.00 0.00 0.00 89 1014.9
20260506153931 56 275 0.9 2.6 0.00 0.00 0.00 89 1014.9
20260506153825 56 275 0.9 2.6 0.00 0.00 0.00 89 1014.9
20260506153722 56 275 0.9 2.6 0.00 0.00 0.00 89 1014.9
20260506153521 56 275 1.7 2.6 0.00 0.00 0.00 89 1014.9
20260506153414 57 281 1.7 2.6 0.00 0.00 0.00 89 1015.0
20260506153314 57 289 0.9 2.6 0.00 0.00 0.00 89 1015.0
20260506153213 57 283 0.9 1.7 0.00 0.00 0.00 89 1014.9
20260506153009 57 283 0.9 1.7 0.00 0.00 0.00 89 1015.0
20260506152931 57 283 0.0 1.7 0.00 0.00 0.00 89 1015.1
20260506152908 57 283 0.0 1.7 0.00 0.00 0.00 89 1014.9
20260506152846 57 271 0.0 0.0 0.00 0.00 0.00 89 1015.1
20260506152823 57 271 0.0 0.0 0.00 0.00 0.00 89 1015.0
20260506152516 57 271 0.0 0.0 0.00 0.00 0.00 89 1015.1
20260506152408 57 271 0.0 0.0 0.00 0.00 0.00 89 1015.0
20260506152311 57 271 0.0 0.0 0.00 0.00 0.00 89 1015.1
20260506152212 57 271 0.0 0.0 0.00 0.00 0.00 89 1015.1
20260506152008 57 271 0.0 0.0 0.00 0.00 0.00 89 1015.0
20260506151934 57 271 0.0 0.0 0.00 0.00 0.00 89 1015.2
20260506151913 57 271 0.0 0.0 0.00 0.00 0.00 89 1015.2
20260506151849 57 271 0.0 0.0 0.00 0.00 0.00 89 1015.2
20260506151826 57 271 0.0 0.0 0.00 0.00 0.00 89 1015.1
20260506151457 57 271 0.0 0.0 0.00 0.00 0.00 89 1015.2
20260506151349 57 271 0.0 0.0 0.00 0.00 0.00 89 1015.2
20260506151249 57 271 0.0 0.0 0.00 0.00 0.00 89 1015.2
20260506151149 58 271 0.0 0.0 0.00 0.00 0.00 89 1015.2
20260506151048 58 271 0.0 0.0 0.00 0.00 0.00 89 1015.3
20260506150948 58 271 0.0 0.0 0.00 0.00 0.00 89 1015.3
20260506150917 58 271 0.0 0.0 0.00 0.00 0.00 89 1015.2
20260506150857 58 271 0.0 0.0 0.00 0.00 0.00 89 1015.3
20260506150832 58 271 0.0 0.0 0.00 0.00 0.00 89 1015.3
20260506150543 58 271 0.0 0.0 0.00 0.00 0.00 89 1015.3
20260506150443 58 271 0.0 0.0 0.00 0.00 0.00 89 1015.2
20260506150342 58 271 0.0 0.9 0.00 0.00 0.00 89 1015.1
20260506150244 58 271 0.0 0.9 0.00 0.00 0.00 89 1015.3
20260506150141 58 271 0.0 0.9 0.00 0.00 0.00 89 1015.1
20260506150037 58 271 0.0 0.9 0.00 0.00 0.00 89 1015.3
20260506145939 58 271 0.0 0.9 0.00 0.00 0.00 89 1015.2
20260506145838 58 271 0.0 0.9 0.00 0.00 0.00 89 1015.2
20260506145738 58 271 0.0 0.9 0.00 0.00 0.00 89 1015.2
20260506145637 58 271 0.0 1.7 0.00 0.00 0.00 89 1015.3
20260506145538 58 271 0.0 1.7 0.00 0.00 0.00 89 1015.2
20260506145440 58 271 0.9 1.7 0.00 0.00 0.00 89 1015.2
20260506145338 58 271 0.9 1.7 0.00 0.00 0.00 89 1015.2
20260506145237 58 271 0.9 1.7 0.00 0.00 0.00 89 1015.2
20260506145136 58 271 0.0 2.6 0.00 0.00 0.00 89 1015.3
20260506145030 58 271 0.0 2.6 0.00 0.00 0.00 89 1015.2
20260506144930 58 271 0.0 2.6 0.00 0.00 0.00 89 1015.3
20260506144824 58 271 0.0 2.6 0.00 0.00 0.00 89 1015.3
20260506144728 58 271 0.0 2.6 0.00 0.00 0.00 89 1015.3
20260506144626 58 271 0.0 2.6 0.00 0.00 0.00 89 1015.3
20260506144520 58 271 0.0 2.6 0.00 0.00 0.00 89 1015.4
20260506144421 58 271 0.9 2.6 0.00 0.00 0.00 89 1015.3
20260506144321 58 259 1.7 2.6 0.00 0.00 0.00 89 1015.4
20260506144225 58 235 0.9 2.6 0.00 0.00 0.00 89 1015.4
20260506144119 58 260 0.9 1.7 0.00 0.00 0.00 89 1015.4
20260506144019 59 277 0.9 1.7 0.00 0.00 0.00 89 1015.4
20260506143919 59 238 0.0 1.7 0.00 0.00 0.00 89 1015.4
20260506143819 59 238 0.0 1.7 0.00 0.00 0.00 89 1015.3
20260506143720 59 238 0.0 1.7 0.00 0.00 0.00 89 1015.3
20260506143520 59 238 0.9 1.7 0.00 0.00 0.00 89 1015.4
20260506143415 59 238 0.9 1.7 0.00 0.00 0.00 89 1015.4
20260506143312 59 238 0.9 1.7 0.00 0.00 0.00 89 1015.3
20260506143214 59 238 0.0 1.7 0.00 0.00 0.00 89 1015.3
20260506143012 59 238 0.0 1.7 0.00 0.00 0.00 89 1015.4
20260506142909 59 238 0.9 1.7 0.00 0.00 0.00 90 1015.4
20260506142810 59 238 0.9 1.7 0.00 0.00 0.00 90 1015.4
20260506142709 59 238 0.9 1.7 0.00 0.00 0.00 90 1015.4
20260506142518 59 243 0.9 1.7 0.00 0.00 0.00 90 1015.4
20260506142409 59 286 0.9 1.7 0.00 0.00 0.00 90 1015.4
20260506142310 59 313 0.0 1.7 0.00 0.00 0.00 90 1015.5
20260506142215 59 263 0.0 0.0 0.00 0.00 0.00 90 1015.4
20260506142114 59 263 0.0 0.0 0.00 0.00 0.00 90 1015.5
20260506142055 59 263 0.0 0.0 0.00 0.00 0.00 90 1015.5
20260506141810 59 263 0.0 0.0 0.00 0.00 0.00 90 1015.5
20260506141709 59 263 0.0 0.9 0.00 0.00 0.00 90 1015.5
20260506141620 59 263 0.0 0.9 0.00 0.00 0.00 90 1015.5
20260506141513 59 263 0.0 2.6 0.00 0.00 0.00 90 1015.5
20260506141410 59 263 0.0 2.6 0.00 0.00 0.00 90 1015.5
20260506141308 59 263 0.0 2.6 0.00 0.00 0.00 90 1015.5
20260506141210 59 263 0.0 2.6 0.00 0.00 0.00 90 1015.4
20260506141008 59 263 0.0 2.6 0.00 0.00 0.00 90 1015.5
20260506140910 59 263 0.0 2.6 0.00 0.00 0.00 90 1015.4
20260506140808 59 263 0.9 2.6 0.00 0.00 0.00 90 1015.4
20260506140656 59 273 0.9 2.6 0.00 0.00 0.00 90 1015.3
20260506140553 59 273 0.9 3.5 0.00 0.00 0.00 90 1015.4
20260506140447 59 268 0.0 3.5 0.00 0.00 0.00 90 1015.4
20260506140346 59 277 0.0 3.5 0.00 0.00 0.00 90 1015.4
20260506140243 59 277 0.9 3.5 0.00 0.00 0.00 90 1015.3
20260506140140 59 277 1.7 3.5 0.00 0.00 0.00 90 1015.4
20260506140043 59 281 1.7 3.5 0.00 0.00 0.00 90 1015.3
20260506135937 59 284 1.7 3.5 0.00 0.00 0.00 90 1015.3
20260506135841 60 316 1.7 3.5 0.00 0.00 0.00 90 1015.4
20260506135738 60 301 1.7 3.5 0.00 0.00 0.00 90 1015.3
20260506135639 60 300 1.7 3.5 0.00 0.00 0.00 90 1015.3
20260506135539 60 281 1.7 3.5 0.00 0.00 0.00 90 1015.2
20260506135441 60 281 1.7 3.5 0.00 0.00 0.00 90 1015.3
20260506135337 60 300 1.7 2.6 0.00 0.00 0.00 90 1015.3
20260506135251 60 292 1.7 3.5 0.00 0.00 0.00 90 1015.3
20260506135139 59 305 1.7 3.5 0.00 0.00 0.00 90 1015.4
20260506135044 60 305 1.7 3.5 0.00 0.00 0.00 90 1015.4
20260506134939 60 296 1.7 3.5 0.00 0.00 0.00 90 1015.3
20260506134838 60 315 0.9 3.5 0.00 0.00 0.00 90 1015.3
20260506134737 60 273 0.9 3.5 0.00 0.00 0.00 90 1015.3
20260506134640 60 321 1.7 3.5 0.00 0.00 0.00 90 1015.2
20260506134543 60 292 1.7 3.5 0.00 0.00 0.00 90 1015.3
20260506134438 60 278 1.7 3.5 0.00 0.00 0.00 90 1015.3
20260506134414 60 316 1.7 3.5 0.00 0.00 0.00 90 1015.3
20260506134319 60 290 1.7 3.5 0.00 0.00 0.00 90 1015.3
20260506134041 60 292 1.7 3.5 0.00 0.00 0.00 90 1015.4
20260506133938 60 288 1.7 3.5 0.00 0.00 0.00 90 1015.4
20260506133837 60 298 1.7 3.5 0.00 0.00 0.00 90 1015.3
20260506133738 60 327 1.7 3.5 0.00 0.00 0.00 90 1015.3
20260506133640 60 305 1.7 4.3 0.00 0.00 0.00 90 1015.3
20260506133537 60 338 0.9 5.2 0.00 0.00 0.00 90 1015.3
20260506133438 60 322 1.7 5.2 0.00 0.00 0.00 90 1015.3
20260506133337 60 312 0.9 5.2 0.00 0.00 0.00 90 1015.3
20260506133238 60 318 1.7 5.2 0.00 0.00 0.00 90 1015.4
20260506133140 60 322 1.7 5.2 0.00 0.00 0.00 90 1015.3
20260506133038 60 303 1.7 5.2 0.00 0.00 0.00 90 1015.4
20260506132939 60 323 1.7 5.2 0.00 0.00 0.00 90 1015.4
20260506132839 60 334 2.6 5.2 0.00 0.00 0.00 90 1015.4
20260506132738 60 329 3.5 5.2 0.00 0.00 0.00 90 1015.4
20260506132641 60 22 2.6 5.2 0.00 0.00 0.00 90 1015.4
20260506132539 60 335 0.9 4.3 0.00 0.00 0.00 90 1015.4
20260506132440 60 333 0.9 4.3 0.00 0.00 0.00 90 1015.5
20260506132342 60 333 1.7 4.3 0.00 0.00 0.00 90 1015.5
20260506132238 60 340 2.6 4.3 0.00 0.00 0.00 90 1015.5
20260506132138 60 327 2.6 4.3 0.00 0.00 0.00 90 1015.5
20260506132037 60 319 2.6 4.3 0.00 0.00 0.00 90 1015.6
20260506131938 59 316 1.7 4.3 0.00 0.00 0.00 90 1015.5
20260506131839 60 309 1.7 4.3 0.00 0.00 0.00 90 1015.5
20260506131740 59 303 2.6 4.3 0.00 0.00 0.00 90 1015.6
20260506131637 59 288 1.7 4.3 0.00 0.00 0.00 90 1015.6
20260506131536 59 296 1.7 4.3 0.00 0.00 0.00 90 1015.6
20260506131437 59 306 2.6 4.3 0.00 0.00 0.00 90 1015.6
20260506131327 59 324 2.6 4.3 0.00 0.00 0.00 90 1015.6
20260506131224 59 340 1.7 4.3 0.00 0.00 0.00 90 1015.6
20260506131124 59 301 1.7 5.2 0.00 0.00 0.00 90 1015.6
20260506131020 59 327 1.7 5.2 0.00 0.00 0.00 90 1015.6
20260506130922 59 327 0.9 5.2 0.00 0.00 0.00 90 1015.6
20260506130859 59 348 0.9 5.2 0.00 0.00 0.00 90 1015.6
20260506130830 59 338 1.7 5.2 0.00 0.00 0.00 90 1015.6
20260506130807 59 342 1.7 5.2 0.00 0.00 0.00 90 1015.7
20260506130516 59 298 0.9 5.2 0.00 0.00 0.00 89 1015.7
20260506130414 59 348 1.7 5.2 0.00 0.00 0.00 89 1015.7
20260506130312 59 339 1.7 5.2 0.00 0.00 0.00 89 1015.7
20260506130215 59 340 0.9 5.2 0.00 0.00 0.00 89 1015.7
20260506130111 59 335 1.7 3.5 0.00 0.00 0.00 89 1015.7
20260506130011 59 336 1.7 3.5 0.00 0.00 0.00 89 1015.8
20260506125909 59 316 0.9 2.6 0.00 0.00 0.00 89 1015.8
20260506125813 59 332 1.7 2.6 0.00 0.00 0.00 89 1015.8
20260506125709 59 323 1.7 2.6 0.00 0.00 0.00 89 1015.8
20260506125609 59 313 1.7 2.6 0.00 0.00 0.00 89 1015.9
20260506125513 59 319 0.9 2.6 0.00 0.00 0.00 89 1015.8
20260506125410 59 304 0.9 2.6 0.00 0.00 0.00 89 1015.9
20260506125309 59 288 0.9 1.7 0.00 0.00 0.00 89 1015.8
20260506125215 59 288 0.0 1.7 0.00 0.00 0.00 89 1015.9
20260506125110 59 302 0.0 1.7 0.00 0.00 0.00 89 1015.9
20260506125012 59 302 0.0 1.7 0.00 0.00 0.00 89 1015.9
20260506124908 59 302 0.0 1.7 0.00 0.00 0.00 89 1016.0
20260506124806 59 302 0.0 1.7 0.00 0.00 0.00 89 1015.9
20260506124711 59 302 0.0 1.7 0.00 0.00 0.00 89 1015.9
20260506124608 59 290 0.0 1.7 0.00 0.00 0.00 89 1015.9
20260506124501 59 290 0.0 1.7 0.00 0.00 0.00 89 1016.0
20260506124400 59 290 0.0 2.6 0.00 0.00 0.00 89 1016.0
20260506124259 59 290 0.9 2.6 0.00 0.00 0.00 89 1016.0
20260506124157 60 290 0.9 2.6 0.00 0.00 0.00 89 1016.0
20260506124059 60 290 0.9 3.5 0.00 0.00 0.00 89 1016.0
20260506123953 59 297 0.9 3.5 0.00 0.00 0.00 89 1016.0
20260506123857 60 297 0.9 3.5 0.00 0.00 0.00 89 1016.0
20260506123750 59 292 0.9 3.5 0.00 0.00 0.00 89 1016.1
20260506123652 60 290 0.9 3.5 0.00 0.00 0.00 89 1016.2
20260506123546 59 298 1.7 3.5 0.00 0.00 0.00 89 1016.1
20260506123446 60 290 0.9 3.5 0.00 0.00 0.00 89 1016.2
20260506123339 59 298 0.9 3.5 0.00 0.00 0.00 89 1016.2
20260506123242 60 298 0.9 3.5 0.00 0.00 0.00 89 1016.2
20260506123137 59 297 0.9 3.5 0.00 0.00 0.00 89 1016.2
20260506123044 59 296 0.9 3.5 0.00 0.00 0.00 89 1016.2
20260506122947 59 290 1.7 3.5 0.00 0.00 0.00 89 1016.2
20260506122920 59 281 0.9 3.5 0.00 0.00 0.00 88 1016.3
20260506122850 59 285 0.9 3.5 0.00 0.00 0.00 88 1016.3
20260506122823 59 282 1.7 3.5 0.00 0.00 0.00 88 1016.4
20260506122755 59 282 1.7 3.5 0.00 0.00 0.00 88 1016.4
20260506122438 59 277 1.7 3.5 0.00 0.00 0.00 88 1016.4
20260506122340 59 266 1.7 3.5 0.00 0.00 0.00 88 1016.5
20260506122240 59 273 1.7 2.6 0.00 0.00 0.00 88 1016.4
20260506122143 59 268 1.7 2.6 0.00 0.00 0.00 88 1016.5
20260506121938 59 266 0.9 1.7 0.00 0.00 0.00 88 1016.4
20260506121906 59 264 0.9 1.7 0.00 0.00 0.00 88 1016.5
20260506121846 59 266 0.9 1.7 0.00 0.00 0.00 88 1016.5
20260506121821 60 266 0.9 1.7 0.00 0.00 0.00 88 1016.5
20260506121751 60 273 0.9 2.6 0.00 0.00 0.00 88 1016.5
20260506121436 60 273 0.9 2.6 0.00 0.00 0.00 88 1016.5
20260506121336 60 271 0.9 2.6 0.00 0.00 0.00 88 1016.5
20260506121238 60 263 0.9 2.6 0.00 0.00 0.00 88 1016.5
20260506121139 60 264 0.9 2.6 0.00 0.00 0.00 87 1016.5
20260506120937 60 269 0.9 2.6 0.00 0.00 0.00 87 1016.6
20260506120837 60 269 1.7 2.6 0.00 0.00 0.00 87 1016.6
20260506120735 60 269 1.7 2.6 0.00 0.00 0.00 87 1016.7
20260506120634 60 264 0.9 2.6 0.00 0.00 0.00 87 1016.5
20260506120532 60 227 0.9 1.7 0.00 0.00 0.00 87 1016.5
20260506120429 60 240 1.7 1.7 0.00 0.00 0.00 87 1016.6
20260506120324 60 239 0.9 1.7 0.00 0.00 0.00 87 1016.6
20260506120217 60 250 0.9 1.7 0.00 0.00 0.00 87 1016.6
20260506120114 60 236 0.9 1.7 0.00 0.00 0.00 87 1016.6
20260506120013 60 241 0.9 1.7 0.00 0.00 0.00 87 1016.5
20260506115911 60 351 0.9 1.7 0.00 0.00 0.00 87 1016.6
20260506115813 60 351 0.0 1.7 0.00 0.00 0.00 87 1016.6
20260506115710 60 351 0.0 1.7 0.00 0.00 0.00 87 1016.5
20260506115610 60 351 0.0 1.7 0.00 0.00 0.00 87 1016.6
20260506115511 60 351 0.0 1.7 0.00 0.00 0.00 87 1016.6
20260506115409 60 351 0.9 1.7 0.00 0.00 0.00 87 1016.6
20260506115310 60 351 0.9 1.7 0.00 0.00 0.00 87 1016.5
20260506115210 60 351 0.0 1.7 0.00 0.00 0.00 87 1016.6
20260506115113 60 351 0.0 0.9 0.00 0.00 0.00 87 1016.6
20260506115011 60 351 0.0 0.9 0.00 0.00 0.00 87 1016.6
20260506114908 60 351 0.0 0.9 0.00 0.00 0.00 87 1016.6
20260506114815 60 351 0.0 0.9 0.00 0.00 0.00 87 1016.7
20260506114713 60 351 0.0 0.9 0.00 0.00 0.00 87 1016.6
20260506114612 60 351 0.0 0.0 0.00 0.00 0.00 87 1016.7
20260506114511 60 351 0.0 0.0 0.00 0.00 0.00 87 1016.7
20260506114409 60 351 0.0 0.0 0.00 0.00 0.00 87 1016.7
20260506114311 60 351 0.0 0.0 0.00 0.00 0.00 87 1016.6
20260506114209 60 351 0.0 0.0 0.00 0.00 0.00 87 1016.7
20260506114116 60 351 0.0 0.9 0.00 0.00 0.00 87 1016.7
20260506114009 60 351 0.0 0.9 0.00 0.00 0.00 87 1016.7
20260506113913 60 351 0.0 0.9 0.00 0.00 0.00 87 1016.7
20260506113808 60 351 0.0 0.9 0.00 0.00 0.00 87 1016.7
20260506113655 60 351 0.0 0.9 0.00 0.00 0.00 87 1016.7
20260506113557 60 351 0.0 0.9 0.00 0.00 0.00 87 1016.7
20260506113454 60 351 0.0 0.9 0.00 0.00 0.00 87 1016.9
20260506113350 60 351 0.0 1.7 0.00 0.00 0.00 87 1016.7
20260506113251 60 351 0.0 1.7 0.00 0.00 0.00 87 1016.7
20260506113139 60 351 0.0 1.7 0.00 0.00 0.00 87 1016.7
20260506113040 60 351 0.0 1.7 0.00 0.00 0.00 87 1016.7
20260506112948 60 351 0.0 1.7 0.00 0.00 0.00 87 1016.8
20260506112837 61 351 0.0 1.7 0.00 0.00 0.00 87 1016.8
20260506112739 61 351 0.0 1.7 0.00 0.00 0.00 87 1016.8
20260506112637 61 351 0.0 1.7 0.00 0.00 0.00 87 1016.7
20260506112540 61 351 0.0 1.7 0.00 0.00 0.00 87 1016.8
20260506112437 61 351 0.0 1.7 0.00 0.00 0.00 87 1016.8
20260506112341 61 351 0.0 0.9 0.00 0.00 0.00 87 1016.8
20260506112238 61 351 0.0 0.9 0.00 0.00 0.00 87 1016.8
20260506112139 61 351 0.0 0.9 0.00 0.00 0.00 86 1016.8
20260506112041 61 351 0.0 0.9 0.00 0.00 0.00 86 1016.8
20260506111940 61 351 0.0 0.0 0.00 0.00 0.00 86 1016.9
20260506111839 61 351 0.0 0.0 0.00 0.00 0.00 86 1016.8
20260506111738 61 351 0.0 0.0 0.00 0.00 0.00 86 1016.8
20260506111638 61 351 0.0 0.0 0.00 0.00 0.00 86 1016.9
20260506111540 61 351 0.0 0.0 0.00 0.00 0.00 86 1016.9
20260506111442 61 351 0.0 0.9 0.00 0.00 0.00 86 1017.0
20260506111340 61 351 0.0 0.9 0.00 0.00 0.00 86 1016.8
20260506111240 61 351 0.0 0.9 0.00 0.00 0.00 86 1016.8
20260506111138 61 351 0.0 0.9 0.00 0.00 0.00 86 1016.9
20260506111038 61 351 0.0 0.9 0.00 0.00 0.00 86 1016.9
20260506110948 61 351 0.0 0.9 0.00 0.00 0.00 86 1016.9
20260506110841 61 351 0.0 0.9 0.00 0.00 0.00 86 1016.9
20260506110806 61 351 0.0 0.9 0.00 0.00 0.00 86 1016.9
20260506110735 61 351 0.0 0.9 0.00 0.00 0.00 86 1016.9
20260506110630 61 351 0.0 0.9 0.00 0.00 0.00 86 1016.9
20260506110349 61 351 0.0 0.9 0.00 0.00 0.00 86 1016.9
20260506110325 61 351 0.0 0.9 0.00 0.00 0.00 86 1016.9
20260506110306 61 351 0.0 0.9 0.00 0.00 0.00 86 1017.0
20260506110229 61 351 0.0 0.9 0.00 0.00 0.00 86 1016.9
20260506105910 61 351 0.0 0.9 0.00 0.00 0.00 86 1017.0
20260506105810 61 351 0.0 0.9 0.00 0.00 0.00 86 1016.9
20260506105712 61 351 0.0 0.9 0.00 0.00 0.00 86 1017.0
20260506105613 61 351 0.0 0.9 0.00 0.00 0.00 86 1017.0
20260506105412 61 351 0.0 0.9 0.00 0.00 0.00 86 1017.0
20260506105310 61 351 0.0 0.9 0.00 0.00 0.00 86 1017.0
20260506105212 61 351 0.0 0.9 0.00 0.00 0.00 86 1017.0
20260506105113 61 351 0.0 0.9 0.00 0.00 0.00 86 1017.0
20260506104913 61 344 0.0 0.0 0.00 0.00 0.00 86 1017.1
20260506104811 61 344 0.0 0.0 0.00 0.00 0.00 86 1017.0
20260506104711 61 344 0.0 0.0 0.00 0.00 0.00 86 1017.1
20260506104613 61 344 0.0 0.0 0.00 0.00 0.00 86 1017.0
20260506104410 61 344 0.0 0.0 0.00 0.00 0.00 85 1017.1
20260506104309 61 344 0.0 0.0 0.00 0.00 0.00 85 1017.0
20260506104210 61 344 0.0 0.9 0.00 0.00 0.00 85 1017.1
20260506104116 61 344 0.0 1.7 0.00 0.00 0.00 85 1017.1
20260506104010 61 344 0.0 1.7 0.00 0.00 0.00 85 1017.0
20260506103903 61 344 0.0 1.7 0.00 0.00 0.00 85 1017.1
20260506103755 61 344 0.0 2.6 0.00 0.00 0.00 85 1017.1
20260506103703 61 344 0.0 2.6 0.00 0.00 0.00 85 1017.1
20260506103603 61 344 0.0 2.6 0.00 0.00 0.00 85 1017.0
20260506103510 61 344 0.0 2.6 0.00 0.00 0.00 85 1017.1
20260506103350 62 344 0.9 2.6 0.00 0.00 0.00 85 1017.1
20260506103146 61 319 0.9 2.6 0.00 0.00 0.00 85 1017.1
20260506103050 62 327 1.7 2.6 0.00 0.00 0.00 85 1017.1
20260506102939 62 346 1.7 2.6 0.00 0.00 0.00 85 1017.1
20260506102840 62 326 0.9 2.6 0.00 0.00 0.00 85 1017.1
20260506102742 62 5 0.9 2.6 0.00 0.00 0.00 85 1017.1
20260506102714 62 350 0.9 2.6 0.00 0.00 0.00 85 1017.1
20260506102539 62 355 0.9 2.6 0.00 0.00 0.00 85 1017.0
20260506102439 62 336 0.9 2.6 0.00 0.00 0.00 85 1017.1
20260506102339 62 337 1.7 2.6 0.00 0.00 0.00 84 1017.2
20260506102238 62 328 1.7 2.6 0.00 0.00 0.00 84 1017.2
20260506102137 62 327 1.7 2.6 0.00 0.00 0.00 84 1017.1
20260506102040 62 331 0.9 2.6 0.00 0.00 0.00 84 1017.2
20260506101942 62 333 0.9 2.6 0.00 0.00 0.00 84 1017.1
20260506101841 62 0 0.9 0.9 0.00 0.00 0.00 84 1017.1